Time,TemperatureF,DewpointF,PressureIn,WindDirection,WindDirectionDegrees,WindSpeedMPH,WindSpeedGustMPH,Humidity,HourlyPrecipIn,Conditions,Clouds,dailyrainin,SolarRadiationWatts/m^2,SoftwareType,DateUTC
2013-04-19 00:00:00,60.6,18.1,30.12,NW,310,4.0,5.0,19,0.00,,,0.00,0,WeatherHawk,2013-04-19 07:00:00,
2013-04-19 00:03:00,60.4,18.0,30.12,NW,309,4.0,5.0,19,0.00,,,0.00,0,WeatherHawk,2013-04-19 07:03:00,
2013-04-19 00:04:00,60.3,17.8,30.12,NW,305,3.0,5.0,19,0.00,,,0.00,0,WeatherHawk,2013-04-19 07:04:00,
2013-04-19 00:05:00,60.3,17.8,30.12,NW,305,3.0,5.0,19,0.00,,,0.00,0,WeatherHawk,2013-04-19 07:05:00,
2013-04-19 00:07:00,60.3,17.8,30.12,WNW,300,3.0,5.0,19,0.00,,,0.00,0,WeatherHawk,2013-04-19 07:07:00,
2013-04-19 00:08:00,60.1,17.7,30.12,WNW,299,3.0,5.0,19,0.00,,,0.00,0,WeatherHawk,2013-04-19 07:08:00,
2013-04-19 00:09:00,60.1,18.9,30.12,WNW,297,3.0,5.0,20,0.00,,,0.00,0,WeatherHawk,2013-04-19 07:09:00,
2013-04-19 00:13:00,59.9,18.7,30.12,WNW,295,4.0,5.0,20,0.00,,,0.00,0,WeatherHawk,2013-04-19 07:13:00,
2013-04-19 00:14:00,59.9,18.7,30.12,WNW,284,4.0,5.0,20,0.00,,,0.00,0,WeatherHawk,2013-04-19 07:14:00,
2013-04-19 00:18:00,59.2,18.1,30.13,WNW,283,1.0,0.0,20,0.00,,,0.00,0,WeatherHawk,2013-04-19 07:18:00,
2013-04-19 00:19:00,59.0,19.1,30.12,WNW,282,2.0,4.0,21,0.00,,,0.00,0,WeatherHawk,2013-04-19 07:19:00,
2013-04-19 00:20:00,58.8,20.1,30.12,West,276,2.0,4.0,22,0.00,,,0.00,0,WeatherHawk,2013-04-19 07:20:00,
2013-04-19 00:23:00,58.3,19.6,30.12,WNW,282,3.0,4.0,22,0.00,,,0.00,0,WeatherHawk,2013-04-19 07:23:00,
2013-04-19 00:25:00,58.3,19.6,30.12,WNW,303,2.0,4.0,22,0.00,,,0.00,0,WeatherHawk,2013-04-19 07:25:00,
2013-04-19 00:28:00,58.1,19.5,30.12,NW,306,4.0,4.0,22,0.00,,,0.00,0,WeatherHawk,2013-04-19 07:28:00,
2013-04-19 00:30:00,57.9,19.3,30.12,WNW,301,4.0,0.0,22,0.00,,,0.00,0,WeatherHawk,2013-04-19 07:30:00,
2013-04-19 00:33:00,58.1,19.5,30.12,WNW,300,5.0,0.0,22,0.00,,,0.00,0,WeatherHawk,2013-04-19 07:33:00,
2013-04-19 00:35:00,58.3,19.6,30.12,WNW,290,5.0,0.0,22,0.00,,,0.00,0,WeatherHawk,2013-04-19 07:35:00,
2013-04-19 00:38:00,58.5,19.8,30.12,West,275,5.0,-999.0,22,0.00,,,0.00,0,WeatherHawk,2013-04-19 07:38:00,
2013-04-19 00:42:00,58.1,21.5,30.12,West,272,7.0,7.0,24,0.00,,,0.00,0,WeatherHawk,2013-04-19 07:42:00,
2013-04-19 00:43:00,58.1,21.5,30.12,West,272,7.0,-999.0,24,0.00,,,0.00,0,WeatherHawk,2013-04-19 07:43:00,
2013-04-19 00:44:00,57.9,21.4,30.12,West,273,6.0,6.0,24,0.00,,,0.00,0,WeatherHawk,2013-04-19 07:44:00,
2013-04-19 00:45:00,57.7,22.2,30.12,West,272,6.0,6.0,25,0.00,,,0.00,0,WeatherHawk,2013-04-19 07:45:00,
2013-04-19 00:48:00,57.4,21.9,30.12,West,267,6.0,6.0,25,0.00,,,0.00,0,WeatherHawk,2013-04-19 07:48:00,
2013-04-19 00:49:00,57.0,21.6,30.12,West,274,7.0,0.0,25,0.00,,,0.00,0,WeatherHawk,2013-04-19 07:49:00,
2013-04-19 00:51:00,56.7,22.2,30.12,West,275,6.0,0.0,26,0.00,,,0.00,0,WeatherHawk,2013-04-19 07:51:00,
2013-04-19 00:53:00,56.7,22.2,30.12,West,279,6.0,-999.0,26,0.00,,,0.00,0,WeatherHawk,2013-04-19 07:53:00,
2013-04-19 00:55:00,56.8,21.4,30.12,WNW,286,5.0,0.0,25,0.00,,,0.00,0,WeatherHawk,2013-04-19 07:55:00,
2013-04-19 00:57:00,57.0,19.6,30.12,WNW,288,5.0,0.0,23,0.00,,,0.00,0,WeatherHawk,2013-04-19 07:57:00,
2013-04-19 00:58:00,57.0,19.6,30.12,WNW,296,5.0,0.0,23,0.00,,,0.00,0,WeatherHawk,2013-04-19 07:58:00,
2013-04-19 01:02:00,57.9,20.4,30.12,WNW,296,5.0,7.0,23,0.00,,,0.00,0,WeatherHawk,2013-04-19 08:02:00,
2013-04-19 01:05:00,57.6,21.0,30.12,WNW,291,5.0,7.0,24,0.00,,,0.00,0,WeatherHawk,2013-04-19 08:05:00,
2013-04-19 01:06:00,57.4,20.9,30.12,WNW,291,5.0,7.0,24,0.00,,,0.00,0,WeatherHawk,2013-04-19 08:06:00,
2013-04-19 01:07:00,57.4,20.9,30.12,WNW,289,4.0,-999.0,24,0.00,,,0.00,0,WeatherHawk,2013-04-19 08:07:00,
2013-04-19 01:09:00,57.4,22.8,30.12,WNW,289,4.0,6.0,26,0.00,,,0.00,0,WeatherHawk,2013-04-19 08:09:00,
2013-04-19 01:11:00,57.0,22.5,30.12,WNW,291,5.0,6.0,26,0.00,,,0.00,0,WeatherHawk,2013-04-19 08:11:00,
2013-04-19 01:12:00,56.8,23.2,30.12,WNW,289,4.0,6.0,27,0.00,,,0.00,0,WeatherHawk,2013-04-19 08:12:00,
2013-04-19 01:15:00,56.3,21.9,30.12,WNW,294,5.0,6.0,26,0.00,,,0.00,0,WeatherHawk,2013-04-19 08:15:00,
2013-04-19 01:17:00,56.5,21.1,30.12,NW,314,7.0,7.0,25,0.00,,,0.00,0,WeatherHawk,2013-04-19 08:17:00,
2013-04-19 01:18:00,56.5,21.1,30.12,NW,314,7.0,7.0,25,0.00,,,0.00,0,WeatherHawk,2013-04-19 08:18:00,
2013-04-19 01:22:00,57.2,18.7,30.11,North,350,5.0,-999.0,22,0.00,,,0.00,0,WeatherHawk,2013-04-19 08:22:00,
2013-04-19 01:24:00,57.9,17.1,30.11,NW,324,7.0,7.0,20,0.00,,,0.00,0,WeatherHawk,2013-04-19 08:24:00,
2013-04-19 01:29:00,58.5,19.8,30.11,NW,316,6.0,0.0,22,0.00,,,0.00,0,WeatherHawk,2013-04-19 08:29:00,
2013-04-19 01:30:00,58.5,19.8,30.11,NW,309,6.0,0.0,22,0.00,,,0.00,0,WeatherHawk,2013-04-19 08:30:00,
2013-04-19 01:31:00,58.1,20.5,30.11,WNW,303,6.0,0.0,23,0.00,,,0.00,0,WeatherHawk,2013-04-19 08:31:00,
2013-04-19 01:35:00,58.1,19.5,30.11,NW,308,7.0,0.0,22,0.00,,,0.00,0,WeatherHawk,2013-04-19 08:35:00,
2013-04-19 01:36:00,57.9,20.4,30.11,NW,314,6.0,0.0,23,0.00,,,0.00,0,WeatherHawk,2013-04-19 08:36:00,
2013-04-19 01:37:00,57.9,20.4,30.11,NW,317,6.0,0.0,23,0.00,,,0.00,0,WeatherHawk,2013-04-19 08:37:00,
2013-04-19 01:38:00,57.7,20.2,30.11,NW,317,6.0,8.0,23,0.00,,,0.00,0,WeatherHawk,2013-04-19 08:38:00,
2013-04-19 01:44:00,57.4,20.9,30.11,NNW,337,6.0,8.0,24,0.00,,,0.00,0,WeatherHawk,2013-04-19 08:44:00,
2013-04-19 01:46:00,57.0,19.6,30.11,NNW,336,5.0,8.0,23,0.00,,,0.00,0,WeatherHawk,2013-04-19 08:46:00,
2013-04-19 01:49:00,57.4,18.9,30.11,NNW,339,6.0,-999.0,22,0.00,,,0.00,0,WeatherHawk,2013-04-19 08:49:00,
2013-04-19 01:51:00,57.7,21.2,30.11,NE,46,4.0,7.0,24,0.00,,,0.00,0,WeatherHawk,2013-04-19 08:51:00,
2013-04-19 01:53:00,56.5,21.1,30.11,NNE,28,3.0,7.0,25,0.00,,,0.00,0,WeatherHawk,2013-04-19 08:53:00,
2013-04-19 01:58:00,57.4,18.9,30.11,North,10,4.0,-999.0,22,0.00,,,0.00,0,WeatherHawk,2013-04-19 08:58:00,
2013-04-19 01:59:00,57.4,18.9,30.11,North,10,4.0,7.0,22,0.00,,,0.00,0,WeatherHawk,2013-04-19 08:59:00,
2013-04-19 02:00:00,57.4,19.9,30.11,NNE,21,4.0,6.0,23,0.00,,,0.00,0,WeatherHawk,2013-04-19 09:00:00,
2013-04-19 02:01:00,57.2,19.7,30.11,North,10,4.0,6.0,23,0.00,,,0.00,0,WeatherHawk,2013-04-19 09:01:00,
2013-04-19 02:04:00,57.4,18.9,30.11,North,0,4.0,6.0,22,0.00,,,0.00,0,WeatherHawk,2013-04-19 09:04:00,
2013-04-19 02:05:00,57.4,18.9,30.11,North,1,4.0,6.0,22,0.00,,,0.00,0,WeatherHawk,2013-04-19 09:05:00,
2013-04-19 02:07:00,57.7,18.1,30.11,NNE,21,3.0,6.0,21,0.00,,,0.00,0,WeatherHawk,2013-04-19 09:07:00,
2013-04-19 02:08:00,57.9,18.2,30.11,NNE,13,3.0,6.0,21,0.00,,,0.00,0,WeatherHawk,2013-04-19 09:08:00,
2013-04-19 02:09:00,57.9,17.1,30.11,NNE,13,3.0,0.0,20,0.00,,,0.00,0,WeatherHawk,2013-04-19 09:09:00,
2013-04-19 02:11:00,58.6,17.7,30.11,NNE,17,4.0,4.0,20,0.00,,,0.00,0,WeatherHawk,2013-04-19 09:11:00,
2013-04-19 02:13:00,58.8,17.8,30.11,NNE,21,4.0,4.0,20,0.00,,,0.00,0,WeatherHawk,2013-04-19 09:13:00,
2013-04-19 02:15:00,59.0,18.0,30.11,North,7,3.0,4.0,20,0.00,,,0.00,0,WeatherHawk,2013-04-19 09:15:00,
2013-04-19 02:18:00,59.2,17.0,30.11,NNE,19,3.0,4.0,19,0.00,,,0.00,0,WeatherHawk,2013-04-19 09:18:00,
2013-04-19 02:21:00,59.4,17.1,30.11,North,11,3.0,4.0,19,0.00,,,0.00,0,WeatherHawk,2013-04-19 09:21:00,
2013-04-19 02:23:00,59.7,17.4,30.11,NNW,336,3.0,4.0,19,0.00,,,0.00,0,WeatherHawk,2013-04-19 09:23:00,
2013-04-19 02:25:00,59.7,17.4,30.11,NNW,339,3.0,4.0,19,0.00,,,0.00,0,WeatherHawk,2013-04-19 09:25:00,
2013-04-19 02:29:00,59.5,17.3,30.11,WNW,303,3.0,4.0,19,0.00,,,0.00,1,WeatherHawk,2013-04-19 09:29:00,
2013-04-19 02:30:00,59.4,17.1,30.11,WNW,292,3.0,4.0,19,0.00,,,0.00,0,WeatherHawk,2013-04-19 09:30:00,
2013-04-19 02:33:00,59.0,18.0,30.11,WNW,290,3.0,-999.0,20,0.00,,,0.00,0,WeatherHawk,2013-04-19 09:33:00,
2013-04-19 02:36:00,58.6,18.8,30.11,WNW,284,3.0,4.0,21,0.00,,,0.00,0,WeatherHawk,2013-04-19 09:36:00,
2013-04-19 02:37:00,58.5,18.7,30.10,WNW,297,2.0,4.0,21,0.00,,,0.00,0,WeatherHawk,2013-04-19 09:37:00,
2013-04-19 02:38:00,58.5,18.7,30.10,West,276,3.0,4.0,21,0.00,,,0.00,0,WeatherHawk,2013-04-19 09:38:00,
2013-04-19 02:42:00,58.3,17.4,30.10,WNW,283,3.0,4.0,20,0.00,,,0.00,0,WeatherHawk,2013-04-19 09:42:00,
2013-04-19 02:43:00,58.1,18.4,30.10,West,268,3.0,4.0,21,0.00,,,0.00,1,WeatherHawk,2013-04-19 09:43:00,
2013-04-19 02:44:00,58.1,18.4,30.10,West,272,3.0,4.0,21,0.00,,,0.00,0,WeatherHawk,2013-04-19 09:44:00,
2013-04-19 02:45:00,58.1,18.4,30.10,West,273,3.0,4.0,21,0.00,,,0.00,0,WeatherHawk,2013-04-19 09:45:00,
2013-04-19 02:48:00,57.9,17.1,30.10,West,272,4.0,-999.0,20,0.00,,,0.00,0,WeatherHawk,2013-04-19 09:48:00,
2013-04-19 02:50:00,57.9,17.1,30.10,West,269,4.0,4.0,20,0.00,,,0.00,0,WeatherHawk,2013-04-19 09:50:00,
2013-04-19 02:51:00,57.9,18.2,30.10,West,272,4.0,4.0,21,0.00,,,0.00,0,WeatherHawk,2013-04-19 09:51:00,
2013-04-19 02:52:00,57.9,18.2,30.10,West,266,4.0,4.0,21,0.00,,,0.00,0,WeatherHawk,2013-04-19 09:52:00,
2013-04-19 02:55:00,57.6,17.9,30.11,West,269,4.0,4.0,21,0.00,,,0.00,0,WeatherHawk,2013-04-19 09:55:00,
2013-04-19 02:57:00,57.4,17.8,30.11,West,274,4.0,4.0,21,0.00,,,0.00,0,WeatherHawk,2013-04-19 09:57:00,
2013-04-19 02:58:00,57.4,16.7,30.11,West,278,4.0,4.0,20,0.00,,,0.00,0,WeatherHawk,2013-04-19 09:58:00,
2013-04-19 03:00:00,57.2,15.3,30.11,WNW,289,3.0,5.0,19,0.00,,,0.00,1,WeatherHawk,2013-04-19 10:00:00,
2013-04-19 03:03:00,57.2,15.3,30.11,WNW,293,4.0,-999.0,19,0.00,,,0.00,0,WeatherHawk,2013-04-19 10:03:00,
2013-04-19 03:05:00,57.0,15.2,30.10,WNW,295,4.0,5.0,19,0.00,,,0.00,0,WeatherHawk,2013-04-19 10:05:00,
2013-04-19 03:06:00,57.0,15.2,30.11,WNW,290,4.0,5.0,19,0.00,,,0.00,0,WeatherHawk,2013-04-19 10:06:00,
2013-04-19 03:08:00,57.0,15.2,30.11,West,278,4.0,5.0,19,0.00,,,0.00,0,WeatherHawk,2013-04-19 10:08:00,
2013-04-19 03:10:00,57.2,16.5,30.11,West,264,5.0,5.0,20,0.00,,,0.00,0,WeatherHawk,2013-04-19 10:10:00,
2013-04-19 03:13:00,56.7,19.3,30.10,West,274,4.0,4.0,23,0.00,,,0.00,0,WeatherHawk,2013-04-19 10:13:00,
2013-04-19 03:14:00,56.5,18.1,30.10,West,273,4.0,4.0,22,0.00,,,0.00,0,WeatherHawk,2013-04-19 10:14:00,
2013-04-19 03:18:00,56.3,15.8,30.10,WNW,298,4.0,4.0,20,0.00,,,0.00,0,WeatherHawk,2013-04-19 10:18:00,
2013-04-19 03:20:00,56.5,13.5,30.10,NW,305,5.0,6.0,18,0.00,,,0.00,0,WeatherHawk,2013-04-19 10:20:00,
2013-04-19 03:23:00,56.8,13.8,30.10,WNW,302,5.0,6.0,18,0.00,,,0.00,0,WeatherHawk,2013-04-19 10:23:00,
2013-04-19 03:26:00,57.0,13.9,30.10,NW,308,4.0,6.0,18,0.00,,,0.00,0,WeatherHawk,2013-04-19 10:26:00,
2013-04-19 03:29:00,57.2,14.1,30.10,NW,309,3.0,5.0,18,0.00,,,0.00,0,WeatherHawk,2013-04-19 10:29:00,
2013-04-19 03:30:00,57.2,14.1,30.10,WNW,297,4.0,5.0,18,0.00,,,0.00,0,WeatherHawk,2013-04-19 10:30:00,
2013-04-19 03:32:00,57.2,12.8,30.10,WNW,295,5.0,5.0,17,0.00,,,0.00,0,WeatherHawk,2013-04-19 10:32:00,
2013-04-19 03:33:00,57.2,14.1,30.10,WNW,299,4.0,5.0,18,0.00,,,0.00,1,WeatherHawk,2013-04-19 10:33:00,
2013-04-19 03:34:00,57.2,12.8,30.10,WNW,296,5.0,5.0,17,0.00,,,0.00,0,WeatherHawk,2013-04-19 10:34:00,
2013-04-19 03:38:00,57.0,13.9,30.10,WNW,296,4.0,-999.0,18,0.00,,,0.00,0,WeatherHawk,2013-04-19 10:38:00,
2013-04-19 03:41:00,56.7,13.7,30.09,WNW,299,3.0,5.0,18,0.00,,,0.00,0,WeatherHawk,2013-04-19 10:41:00,
2013-04-19 03:43:00,56.7,12.4,30.09,WNW,302,4.0,-999.0,17,0.00,,,0.00,0,WeatherHawk,2013-04-19 10:43:00,
2013-04-19 03:44:00,56.7,12.4,30.09,WNW,303,4.0,5.0,17,0.00,,,0.00,0,WeatherHawk,2013-04-19 10:44:00,
2013-04-19 03:45:00,56.8,12.5,30.09,NW,306,5.0,5.0,17,0.00,,,0.00,0,WeatherHawk,2013-04-19 10:45:00,
2013-04-19 03:48:00,57.4,12.9,30.09,NW,304,5.0,5.0,17,0.00,,,0.00,1,WeatherHawk,2013-04-19 10:48:00,
2013-04-19 03:50:00,57.6,11.7,30.09,WNW,301,6.0,6.0,16,0.00,,,0.00,0,WeatherHawk,2013-04-19 10:50:00,
2013-04-19 03:53:00,57.7,11.9,30.09,WNW,294,6.0,6.0,16,0.00,,,0.00,0,WeatherHawk,2013-04-19 10:53:00,
2013-04-19 03:54:00,57.7,10.4,30.09,WNW,293,6.0,6.0,15,0.00,,,0.00,0,WeatherHawk,2013-04-19 10:54:00,
2013-04-19 03:56:00,57.9,12.0,30.09,WNW,299,6.0,6.0,16,0.00,,,0.00,0,WeatherHawk,2013-04-19 10:56:00,
2013-04-19 03:59:00,57.9,12.0,30.09,WNW,296,5.0,7.0,16,0.00,,,0.00,0,WeatherHawk,2013-04-19 10:59:00,
2013-04-19 04:02:00,57.7,11.9,30.09,WNW,298,6.0,7.0,16,0.00,,,0.00,0,WeatherHawk,2013-04-19 11:02:00,
2013-04-19 04:03:00,57.7,11.9,30.09,WNW,298,6.0,-999.0,16,0.00,,,0.00,0,WeatherHawk,2013-04-19 11:03:00,
2013-04-19 04:04:00,57.7,11.9,30.09,WNW,300,6.0,7.0,16,0.00,,,0.00,0,WeatherHawk,2013-04-19 11:04:00,
2013-04-19 04:05:00,57.7,11.9,30.09,WNW,298,6.0,7.0,16,0.00,,,0.00,0,WeatherHawk,2013-04-19 11:05:00,
2013-04-19 04:08:00,57.6,11.7,30.09,WNW,298,5.0,7.0,16,0.00,,,0.00,0,WeatherHawk,2013-04-19 11:08:00,
2013-04-19 04:10:00,57.4,12.9,30.09,WNW,301,5.0,6.0,17,0.00,,,0.00,0,WeatherHawk,2013-04-19 11:10:00,
2013-04-19 04:11:00,57.4,12.9,30.09,WNW,302,5.0,6.0,17,0.00,,,0.00,0,WeatherHawk,2013-04-19 11:11:00,
2013-04-19 04:13:00,57.2,12.8,30.09,WNW,301,5.0,-999.0,17,0.00,,,0.00,0,WeatherHawk,2013-04-19 11:13:00,
2013-04-19 04:14:00,57.2,14.1,30.09,WNW,303,5.0,6.0,18,0.00,,,0.00,0,WeatherHawk,2013-04-19 11:14:00,
2013-04-19 04:16:00,57.0,13.9,30.09,NW,313,4.0,6.0,18,0.00,,,0.00,0,WeatherHawk,2013-04-19 11:16:00,
2013-04-19 04:18:00,56.8,13.8,30.09,NW,325,4.0,-999.0,18,0.00,,,0.00,0,WeatherHawk,2013-04-19 11:18:00,
2013-04-19 04:20:00,56.8,12.5,30.09,NNW,332,5.0,6.0,17,0.00,,,0.00,0,WeatherHawk,2013-04-19 11:20:00,
2013-04-19 04:22:00,57.2,12.8,30.09,NNW,328,6.0,6.0,17,0.00,,,0.00,0,WeatherHawk,2013-04-19 11:22:00,
2013-04-19 04:23:00,57.2,12.8,30.09,NNW,328,5.0,6.0,17,0.00,,,0.00,0,WeatherHawk,2013-04-19 11:23:00,
2013-04-19 04:24:00,57.2,12.8,30.09,NNW,329,6.0,6.0,17,0.00,,,0.00,0,WeatherHawk,2013-04-19 11:24:00,
2013-04-19 04:25:00,57.4,12.9,30.09,NW,325,6.0,6.0,17,0.00,,,0.00,0,WeatherHawk,2013-04-19 11:25:00,
2013-04-19 04:28:00,57.2,14.1,30.09,NW,323,6.0,6.0,18,0.00,,,0.00,0,WeatherHawk,2013-04-19 11:28:00,
2013-04-19 04:29:00,57.0,13.9,30.09,NW,323,6.0,6.0,18,0.00,,,0.00,0,WeatherHawk,2013-04-19 11:29:00,
2013-04-19 04:31:00,56.8,12.5,30.09,NNW,327,6.0,6.0,17,0.00,,,0.00,0,WeatherHawk,2013-04-19 11:31:00,
2013-04-19 04:33:00,56.8,13.8,30.09,NNW,327,7.0,-999.0,18,0.00,,,0.00,0,WeatherHawk,2013-04-19 11:33:00,
2013-04-19 04:36:00,56.7,13.7,30.09,NNW,330,6.0,6.0,18,0.00,,,0.00,1,WeatherHawk,2013-04-19 11:36:00,
2013-04-19 04:37:00,56.5,13.5,30.09,NNW,329,6.0,6.0,18,0.00,,,0.00,0,WeatherHawk,2013-04-19 11:37:00,
2013-04-19 04:38:00,56.3,13.4,30.09,NNW,330,6.0,-999.0,18,0.00,,,0.00,0,WeatherHawk,2013-04-19 11:38:00,
2013-04-19 04:39:00,56.3,13.4,30.09,NNW,333,7.0,7.0,18,0.00,,,0.00,0,WeatherHawk,2013-04-19 11:39:00,
2013-04-19 04:43:00,56.7,13.7,30.09,NNW,334,6.0,-999.0,18,0.00,,,0.00,0,WeatherHawk,2013-04-19 11:43:00,
2013-04-19 04:44:00,56.7,14.9,30.09,NNW,338,5.0,7.0,19,0.00,,,0.00,0,WeatherHawk,2013-04-19 11:44:00,
2013-04-19 04:45:00,56.5,14.7,30.09,NNW,341,4.0,7.0,19,0.00,,,0.00,0,WeatherHawk,2013-04-19 11:45:00,
2013-04-19 04:48:00,56.7,13.7,30.09,NNW,341,5.0,-999.0,18,0.00,,,0.00,1,WeatherHawk,2013-04-19 11:48:00,
2013-04-19 04:50:00,56.8,15.0,30.09,NNW,334,4.0,7.0,19,0.00,,,0.00,0,WeatherHawk,2013-04-19 11:50:00,
2013-04-19 04:51:00,56.8,15.0,30.09,NNW,344,4.0,7.0,19,0.00,,,0.00,0,WeatherHawk,2013-04-19 11:51:00,
2013-04-19 04:56:00,56.8,15.0,30.09,NNW,331,5.0,7.0,19,0.00,,,0.00,0,WeatherHawk,2013-04-19 11:56:00,
2013-04-19 04:57:00,56.8,15.0,30.09,NNW,330,5.0,7.0,19,0.00,,,0.00,0,WeatherHawk,2013-04-19 11:57:00,
2013-04-19 04:58:00,56.7,14.9,30.09,NNW,330,5.0,-999.0,19,0.00,,,0.00,1,WeatherHawk,2013-04-19 11:58:00,
2013-04-19 05:00:00,56.8,15.0,30.09,NNW,333,4.0,5.0,19,0.00,,,0.00,0,WeatherHawk,2013-04-19 12:00:00,
2013-04-19 05:03:00,56.7,14.9,30.09,NW,325,5.0,5.0,19,0.00,,,0.00,0,WeatherHawk,2013-04-19 12:03:00,
2013-04-19 05:05:00,56.5,14.7,30.09,NW,323,5.0,5.0,19,0.00,,,0.00,1,WeatherHawk,2013-04-19 12:05:00,
2013-04-19 05:08:00,56.5,14.7,30.09,NW,317,5.0,5.0,19,0.00,,,0.00,0,WeatherHawk,2013-04-19 12:08:00,
2013-04-19 05:12:00,56.3,14.6,30.10,WNW,300,5.0,5.0,19,0.00,,,0.00,0,WeatherHawk,2013-04-19 12:12:00,
2013-04-19 05:13:00,56.3,14.6,30.10,NW,310,6.0,6.0,19,0.00,,,0.00,1,WeatherHawk,2013-04-19 12:13:00,
2013-04-19 05:15:00,56.1,15.6,30.10,WNW,301,6.0,6.0,20,0.00,,,0.00,0,WeatherHawk,2013-04-19 12:15:00,
2013-04-19 05:16:00,56.1,15.6,30.10,NW,307,6.0,6.0,20,0.00,,,0.00,0,WeatherHawk,2013-04-19 12:16:00,
2013-04-19 05:17:00,55.9,15.5,30.10,NW,311,5.0,5.0,20,0.00,,,0.00,0,WeatherHawk,2013-04-19 12:17:00,
2013-04-19 05:18:00,55.9,15.5,30.10,NW,309,5.0,5.0,20,0.00,,,0.00,0,WeatherHawk,2013-04-19 12:18:00,
2013-04-19 05:22:00,55.8,15.3,30.10,NNW,327,4.0,6.0,20,0.00,,,0.00,1,WeatherHawk,2013-04-19 12:22:00,
2013-04-19 05:23:00,55.8,15.3,30.10,NW,324,4.0,6.0,20,0.00,,,0.00,0,WeatherHawk,2013-04-19 12:23:00,
2013-04-19 05:25:00,55.8,15.3,30.10,NNW,331,3.0,6.0,20,0.00,,,0.00,0,WeatherHawk,2013-04-19 12:25:00,
2013-04-19 05:28:00,55.8,15.3,30.10,NNW,332,4.0,6.0,20,0.00,,,0.00,0,WeatherHawk,2013-04-19 12:28:00,
2013-04-19 05:30:00,55.9,15.5,30.10,NNW,346,4.0,5.0,20,0.00,,,0.00,0,WeatherHawk,2013-04-19 12:30:00,
2013-04-19 05:32:00,56.1,15.6,30.10,North,350,4.0,5.0,20,0.00,,,0.00,0,WeatherHawk,2013-04-19 12:32:00,
2013-04-19 05:35:00,55.9,15.5,30.10,NNE,23,2.0,5.0,20,0.00,,,0.00,0,WeatherHawk,2013-04-19 12:35:00,
2013-04-19 05:36:00,55.6,16.3,30.10,North,350,3.0,5.0,21,0.00,,,0.00,0,WeatherHawk,2013-04-19 12:36:00,
2013-04-19 05:38:00,55.2,16.0,30.11,NNW,346,4.0,-999.0,21,0.00,,,0.00,0,WeatherHawk,2013-04-19 12:38:00,
2013-04-19 05:41:00,55.0,15.8,30.11,NNW,332,5.0,5.0,21,0.00,,,0.00,0,WeatherHawk,2013-04-19 12:41:00,
2013-04-19 05:42:00,55.2,16.0,30.11,NNW,337,5.0,5.0,21,0.00,,,0.00,0,WeatherHawk,2013-04-19 12:42:00,
2013-04-19 05:43:00,55.4,16.1,30.11,NNW,336,5.0,5.0,21,0.00,,,0.00,0,WeatherHawk,2013-04-19 12:43:00,
2013-04-19 05:44:00,55.6,17.4,30.11,NNW,337,5.0,5.0,22,0.00,,,0.00,0,WeatherHawk,2013-04-19 12:44:00,
2013-04-19 05:48:00,55.6,17.4,30.11,North,351,5.0,5.0,22,0.00,,,0.00,0,WeatherHawk,2013-04-19 12:48:00,
2013-04-19 05:50:00,55.6,16.3,30.11,NNW,341,5.0,5.0,21,0.00,,,0.00,0,WeatherHawk,2013-04-19 12:50:00,
2013-04-19 05:51:00,55.8,15.3,30.12,NNW,336,5.0,5.0,20,0.00,,,0.00,0,WeatherHawk,2013-04-19 12:51:00,
2013-04-19 05:53:00,56.3,15.8,30.12,NNW,342,6.0,6.0,20,0.00,,,0.00,1,WeatherHawk,2013-04-19 12:53:00,
2013-04-19 05:55:00,56.8,15.0,30.12,NNW,344,7.0,7.0,19,0.00,,,0.00,3,WeatherHawk,2013-04-19 12:55:00,
2013-04-19 05:56:00,57.0,15.2,30.12,NNW,347,7.0,7.0,19,0.00,,,0.00,3,WeatherHawk,2013-04-19 12:56:00,
2013-04-19 05:57:00,57.2,15.3,30.12,North,350,7.0,7.0,19,0.00,,,0.00,3,WeatherHawk,2013-04-19 12:57:00,
2013-04-19 05:59:00,57.4,14.2,30.12,NNW,348,6.0,7.0,18,0.00,,,0.00,4,WeatherHawk,2013-04-19 12:59:00,
2013-04-19 06:00:00,57.4,14.2,30.12,NNW,347,7.0,7.0,18,0.00,,,0.00,3,WeatherHawk,2013-04-19 13:00:00,
2013-04-19 06:01:00,57.2,15.3,30.12,NNW,345,7.0,7.0,19,0.00,,,0.00,5,WeatherHawk,2013-04-19 13:01:00,
2013-04-19 06:04:00,57.0,16.4,30.12,NNW,343,6.0,7.0,20,0.00,,,0.00,6,WeatherHawk,2013-04-19 13:04:00,
2013-04-19 06:05:00,56.8,16.2,30.12,NNW,340,6.0,7.0,20,0.00,,,0.00,7,WeatherHawk,2013-04-19 13:05:00,
2013-04-19 06:08:00,56.3,15.8,30.12,NW,324,5.0,-999.0,20,0.00,,,0.00,9,WeatherHawk,2013-04-19 13:08:00,
2013-04-19 06:11:00,55.4,16.1,30.13,North,2,1.0,7.0,21,0.00,,,0.00,20,WeatherHawk,2013-04-19 13:11:00,
2013-04-19 06:14:00,54.1,17.2,30.13,NNW,339,1.0,7.0,23,0.00,,,0.00,25,WeatherHawk,2013-04-19 13:14:00,
2013-04-19 06:15:00,53.8,16.9,30.13,NW,320,1.0,7.0,23,0.00,,,0.00,27,WeatherHawk,2013-04-19 13:15:00,
2013-04-19 06:17:00,53.4,18.5,30.13,WNW,296,2.0,7.0,25,0.00,,,0.00,33,WeatherHawk,2013-04-19 13:17:00,
2013-04-19 06:18:00,53.2,18.3,30.13,WNW,294,2.0,7.0,25,0.00,,,0.00,34,WeatherHawk,2013-04-19 13:18:00,
2013-04-19 06:20:00,53.1,19.1,30.13,West,273,2.0,5.0,26,0.00,,,0.00,39,WeatherHawk,2013-04-19 13:20:00,
2013-04-19 06:21:00,53.1,19.1,30.13,West,272,3.0,5.0,26,0.00,,,0.00,41,WeatherHawk,2013-04-19 13:21:00,
2013-04-19 06:23:00,52.7,19.7,30.14,West,259,4.0,5.0,27,0.00,,,0.00,47,WeatherHawk,2013-04-19 13:23:00,
2013-04-19 06:28:00,52.2,22.5,30.14,West,263,5.0,5.0,31,0.00,,,0.00,56,WeatherHawk,2013-04-19 13:28:00,
2013-04-19 06:29:00,52.0,23.0,30.14,West,259,5.0,6.0,32,0.00,,,0.00,63,WeatherHawk,2013-04-19 13:29:00,
2013-04-19 06:30:00,52.0,22.3,30.14,West,266,6.0,6.0,31,0.00,,,0.00,66,WeatherHawk,2013-04-19 13:30:00,
2013-04-19 06:33:00,51.8,24.3,30.14,West,273,5.0,6.0,34,0.00,,,0.00,77,WeatherHawk,2013-04-19 13:33:00,
2013-04-19 06:35:00,51.4,23.3,30.14,West,281,4.0,6.0,33,0.00,,,0.00,81,WeatherHawk,2013-04-19 13:35:00,
2013-04-19 06:37:00,51.4,21.8,30.14,NW,308,4.0,6.0,31,0.00,,,0.00,87,WeatherHawk,2013-04-19 13:37:00,
2013-04-19 06:38:00,51.8,20.6,30.14,NW,312,5.0,6.0,29,0.00,,,0.00,91,WeatherHawk,2013-04-19 13:38:00,
2013-04-19 06:41:00,53.1,18.2,30.14,NNW,336,6.0,6.0,25,0.00,,,0.00,100,WeatherHawk,2013-04-19 13:41:00,
2013-04-19 06:43:00,53.8,18.8,30.14,NNW,339,7.0,7.0,25,0.00,,,0.00,105,WeatherHawk,2013-04-19 13:43:00,
2013-04-19 06:45:00,54.5,18.5,30.14,NNW,342,7.0,7.0,24,0.00,,,0.00,112,WeatherHawk,2013-04-19 13:45:00,
2013-04-19 06:46:00,54.9,18.8,30.14,NNW,346,7.0,7.0,24,0.00,,,0.00,117,WeatherHawk,2013-04-19 13:46:00,
2013-04-19 06:48:00,54.9,18.8,30.14,NNW,342,7.0,-999.0,24,0.00,,,0.00,120,WeatherHawk,2013-04-19 13:48:00,
2013-04-19 06:52:00,55.2,19.1,30.15,NNW,330,7.0,8.0,24,0.00,,,0.00,131,WeatherHawk,2013-04-19 13:52:00,
2013-04-19 06:53:00,55.2,19.1,30.15,NW,321,8.0,8.0,24,0.00,,,0.00,136,WeatherHawk,2013-04-19 13:53:00,
2013-04-19 06:57:00,54.1,20.0,30.15,NW,321,7.0,8.0,26,0.00,,,0.00,151,WeatherHawk,2013-04-19 13:57:00,
2013-04-19 06:58:00,54.1,20.0,30.15,NW,321,7.0,8.0,26,0.00,,,0.00,151,WeatherHawk,2013-04-19 13:58:00,
2013-04-19 06:59:00,54.0,20.8,30.15,NW,321,6.0,8.0,27,0.00,,,0.00,160,WeatherHawk,2013-04-19 13:59:00,
2013-04-19 07:03:00,54.0,20.8,30.15,NW,326,5.0,8.0,27,0.00,,,0.00,166,WeatherHawk,2013-04-19 14:03:00,
2013-04-19 07:04:00,54.0,20.8,30.15,NNW,330,5.0,8.0,27,0.00,,,0.00,176,WeatherHawk,2013-04-19 14:04:00,
2013-04-19 07:07:00,54.9,18.8,30.15,NNW,346,5.0,8.0,24,0.00,,,0.00,188,WeatherHawk,2013-04-19 14:07:00,
2013-04-19 07:08:00,55.2,19.1,30.15,NNW,344,5.0,7.0,24,0.00,,,0.00,192,WeatherHawk,2013-04-19 14:08:00,
2013-04-19 07:10:00,55.9,17.7,30.15,NNW,348,5.0,7.0,22,0.00,,,0.00,197,WeatherHawk,2013-04-19 14:10:00,
2013-04-19 07:11:00,56.3,18.0,30.15,North,350,5.0,7.0,22,0.00,,,0.00,198,WeatherHawk,2013-04-19 14:11:00,
2013-04-19 07:13:00,56.5,18.1,30.15,North,357,4.0,-999.0,22,0.00,,,0.00,203,WeatherHawk,2013-04-19 14:13:00,
2013-04-19 07:17:00,57.4,18.9,30.15,North,5,5.0,7.0,22,0.00,,,0.00,221,WeatherHawk,2013-04-19 14:17:00,
2013-04-19 07:18:00,57.4,18.9,30.15,North,6,4.0,-999.0,22,0.00,,,0.00,223,WeatherHawk,2013-04-19 14:18:00,
2013-04-19 07:20:00,57.6,17.9,30.15,NNE,12,4.0,6.0,21,0.00,,,0.00,234,WeatherHawk,2013-04-19 14:20:00,
2013-04-19 07:21:00,57.6,17.9,30.15,North,11,4.0,6.0,21,0.00,,,0.00,237,WeatherHawk,2013-04-19 14:21:00,
2013-04-19 07:23:00,57.7,18.1,30.15,NNE,15,5.0,6.0,21,0.00,,,0.00,241,WeatherHawk,2013-04-19 14:23:00,
2013-04-19 07:25:00,58.1,18.4,30.15,NNE,30,5.0,6.0,21,0.00,,,0.00,252,WeatherHawk,2013-04-19 14:25:00,
2013-04-19 07:28:00,58.5,19.8,30.15,NE,37,5.0,6.0,22,0.00,,,0.00,261,WeatherHawk,2013-04-19 14:28:00,
2013-04-19 07:33:00,58.6,19.9,30.15,NNE,29,5.0,6.0,22,0.00,,,0.00,282,WeatherHawk,2013-04-19 14:33:00,
2013-04-19 07:34:00,58.8,20.1,30.15,NNE,30,6.0,6.0,22,0.00,,,0.00,288,WeatherHawk,2013-04-19 14:34:00,
2013-04-19 07:37:00,59.0,19.1,30.15,NNE,31,6.0,6.0,21,0.00,,,0.00,300,WeatherHawk,2013-04-19 14:37:00,
2013-04-19 07:38:00,59.2,19.3,30.15,NNE,32,5.0,7.0,21,0.00,,,0.00,303,WeatherHawk,2013-04-19 14:38:00,
2013-04-19 07:40:00,59.5,18.4,30.15,NNE,33,5.0,7.0,20,0.00,,,0.00,310,WeatherHawk,2013-04-19 14:40:00,
2013-04-19 07:43:00,60.1,17.7,30.15,NE,36,7.0,7.0,19,0.00,,,0.00,322,WeatherHawk,2013-04-19 14:43:00,
2013-04-19 07:44:00,60.4,18.0,30.15,NNE,30,6.0,7.0,19,0.00,,,0.00,326,WeatherHawk,2013-04-19 14:44:00,
2013-04-19 07:46:00,60.8,17.0,30.15,NNE,31,7.0,7.0,18,0.00,,,0.00,335,WeatherHawk,2013-04-19 14:46:00,
2013-04-19 07:49:00,61.3,17.5,30.15,NNE,22,7.0,0.0,18,0.00,,,0.00,344,WeatherHawk,2013-04-19 14:49:00,
2013-04-19 07:50:00,61.5,17.6,30.15,NNE,21,7.0,9.0,18,0.00,,,0.00,350,WeatherHawk,2013-04-19 14:50:00,
2013-04-19 07:53:00,61.7,17.8,30.15,NNE,22,7.0,9.0,18,0.00,,,0.00,362,WeatherHawk,2013-04-19 14:53:00,
2013-04-19 07:54:00,61.7,17.8,30.15,NNE,22,7.0,9.0,18,0.00,,,0.00,362,WeatherHawk,2013-04-19 14:54:00,
2013-04-19 07:55:00,61.9,17.9,30.15,NNE,23,7.0,9.0,18,0.00,,,0.00,367,WeatherHawk,2013-04-19 14:55:00,
2013-04-19 07:57:00,62.1,19.3,30.15,NNE,25,8.0,9.0,19,0.00,,,0.00,376,WeatherHawk,2013-04-19 14:57:00,
2013-04-19 07:58:00,62.1,19.3,30.15,NNE,16,8.0,9.0,19,0.00,,,0.00,380,WeatherHawk,2013-04-19 14:58:00,
2013-04-19 07:59:00,62.2,19.5,30.15,NNE,25,8.0,9.0,19,0.00,,,0.00,387,WeatherHawk,2013-04-19 14:59:00,
2013-04-19 08:01:00,62.2,19.5,30.15,NNE,14,9.0,9.0,19,0.00,,,0.00,393,WeatherHawk,2013-04-19 15:01:00,
2013-04-19 08:04:00,62.4,20.8,30.15,NNE,14,7.0,9.0,20,0.00,,,0.00,401,WeatherHawk,2013-04-19 15:04:00,
2013-04-19 08:05:00,62.6,21.0,30.15,NNE,22,9.0,9.0,20,0.00,,,0.00,408,WeatherHawk,2013-04-19 15:05:00,
2013-04-19 08:07:00,62.6,21.0,30.15,NNE,24,7.0,9.0,20,0.00,,,0.00,415,WeatherHawk,2013-04-19 15:07:00,
2013-04-19 08:10:00,62.6,21.0,30.15,NNE,29,8.0,10.0,20,0.00,,,0.00,429,WeatherHawk,2013-04-19 15:10:00,
2013-04-19 08:13:00,62.6,22.1,30.15,NE,35,8.0,10.0,21,0.00,,,0.00,441,WeatherHawk,2013-04-19 15:13:00,
2013-04-19 08:17:00,62.8,21.1,30.15,NE,37,10.0,10.0,20,0.00,,,0.00,456,WeatherHawk,2013-04-19 15:17:00,
2013-04-19 08:18:00,62.8,21.1,30.15,NE,40,8.0,10.0,20,0.00,,,0.00,460,WeatherHawk,2013-04-19 15:18:00,
2013-04-19 08:19:00,63.0,21.3,30.15,NE,40,6.0,10.0,20,0.00,,,0.00,463,WeatherHawk,2013-04-19 15:19:00,
2013-04-19 08:20:00,63.0,21.3,30.15,NE,41,9.0,10.0,20,0.00,,,0.00,468,WeatherHawk,2013-04-19 15:20:00,
2013-04-19 08:23:00,63.1,22.6,30.15,NE,38,8.0,10.0,21,0.00,,,0.00,479,WeatherHawk,2013-04-19 15:23:00,
2013-04-19 08:25:00,63.5,24.0,30.15,NNE,31,7.0,10.0,22,0.00,,,0.00,488,WeatherHawk,2013-04-19 15:25:00,
2013-04-19 08:27:00,63.9,22.0,30.15,NE,38,8.0,10.0,20,0.00,,,0.00,496,WeatherHawk,2013-04-19 15:27:00,
2013-04-19 08:29:00,64.0,21.0,30.15,NE,36,7.0,-999.0,19,0.00,,,0.00,501,WeatherHawk,2013-04-19 15:29:00,
2013-04-19 08:30:00,64.2,19.8,30.15,NE,35,8.0,10.0,18,0.00,,,0.00,507,WeatherHawk,2013-04-19 15:30:00,
2013-04-19 08:33:00,64.8,18.9,30.15,NNE,23,9.0,-999.0,17,0.00,,,0.00,518,WeatherHawk,2013-04-19 15:33:00,
2013-04-19 08:35:00,65.1,19.2,30.15,NNE,27,9.0,10.0,17,0.00,,,0.00,527,WeatherHawk,2013-04-19 15:35:00,
2013-04-19 08:36:00,65.1,19.2,30.15,ENE,61,14.0,14.0,17,0.00,,,0.00,529,WeatherHawk,2013-04-19 15:36:00,
2013-04-19 08:38:00,65.3,19.4,30.15,NNE,17,9.0,-999.0,17,0.00,,,0.00,536,WeatherHawk,2013-04-19 15:38:00,
2013-04-19 08:39:00,65.5,19.5,30.15,NE,38,8.0,17.0,17,0.00,,,0.00,543,WeatherHawk,2013-04-19 15:39:00,
2013-04-19 08:40:00,65.7,19.7,30.15,NNE,23,10.0,17.0,17,0.00,,,0.00,546,WeatherHawk,2013-04-19 15:40:00,
2013-04-19 08:43:00,65.8,21.2,30.15,NNE,27,9.0,17.0,18,0.00,,,0.00,557,WeatherHawk,2013-04-19 15:43:00,
2013-04-19 08:44:00,65.8,21.2,30.15,NNE,27,9.0,17.0,18,0.00,,,0.00,563,WeatherHawk,2013-04-19 15:44:00,
2013-04-19 08:47:00,66.2,20.1,30.15,NE,36,9.0,17.0,17,0.00,,,0.00,574,WeatherHawk,2013-04-19 15:47:00,
2013-04-19 08:48:00,66.2,21.5,30.15,NE,35,8.0,17.0,18,0.00,,,0.00,577,WeatherHawk,2013-04-19 15:48:00,
2013-04-19 08:49:00,66.4,21.6,30.15,NE,40,11.0,11.0,18,0.00,,,0.00,583,WeatherHawk,2013-04-19 15:49:00,
2013-04-19 08:50:00,66.4,21.6,30.15,NE,35,9.0,11.0,18,0.00,,,0.00,586,WeatherHawk,2013-04-19 15:50:00,
2013-04-19 08:53:00,66.7,20.5,30.15,NNE,32,7.0,11.0,17,0.00,,,0.00,597,WeatherHawk,2013-04-19 15:53:00,
2013-04-19 08:56:00,67.3,21.0,30.15,NE,47,11.0,11.0,17,0.00,,,0.00,606,WeatherHawk,2013-04-19 15:56:00,
2013-04-19 08:57:00,67.1,20.8,30.15,NE,42,10.0,11.0,17,0.00,,,0.00,610,WeatherHawk,2013-04-19 15:57:00,
2013-04-19 08:58:00,67.3,21.0,30.15,NE,43,11.0,11.0,17,0.00,,,0.00,614,WeatherHawk,2013-04-19 15:58:00,
2013-04-19 08:59:00,67.3,19.6,30.15,NE,46,9.0,11.0,16,0.00,,,0.00,613,WeatherHawk,2013-04-19 15:59:00,
2013-04-19 09:02:00,67.6,21.3,30.15,NNE,32,8.0,11.0,17,0.00,,,0.00,628,WeatherHawk,2013-04-19 16:02:00,
2013-04-19 09:03:00,67.8,20.0,30.15,NE,49,10.0,11.0,16,0.00,,,0.00,633,WeatherHawk,2013-04-19 16:03:00,
2013-04-19 09:07:00,68.2,20.3,30.15,NE,43,10.0,11.0,16,0.00,,,0.00,647,WeatherHawk,2013-04-19 16:07:00,
2013-04-19 09:08:00,68.2,21.7,30.16,NE,39,7.0,11.0,17,0.00,,,0.00,652,WeatherHawk,2013-04-19 16:08:00,
2013-04-19 09:10:00,68.4,21.9,30.16,ENE,62,10.0,12.0,17,0.00,,,0.00,656,WeatherHawk,2013-04-19 16:10:00,
2013-04-19 09:12:00,68.7,22.1,30.16,NNE,23,8.0,12.0,17,0.00,,,0.00,666,WeatherHawk,2013-04-19 16:12:00,
2013-04-19 09:13:00,68.7,22.1,30.16,NE,47,9.0,12.0,17,0.00,,,0.00,669,WeatherHawk,2013-04-19 16:13:00,
2013-04-19 09:16:00,68.5,22.0,30.16,NNE,20,6.0,12.0,17,0.00,,,0.00,680,WeatherHawk,2013-04-19 16:16:00,
2013-04-19 09:18:00,68.5,20.6,30.16,NE,44,9.0,12.0,16,0.00,,,0.00,686,WeatherHawk,2013-04-19 16:18:00,
2013-04-19 09:19:00,68.7,20.7,30.16,NE,39,8.0,11.0,16,0.00,,,0.00,689,WeatherHawk,2013-04-19 16:19:00,
2013-04-19 09:20:00,68.7,20.7,30.16,NNE,26,8.0,11.0,16,0.00,,,0.00,695,WeatherHawk,2013-04-19 16:20:00,
2013-04-19 09:21:00,68.7,20.7,30.16,NNE,27,9.0,11.0,16,0.00,,,0.00,696,WeatherHawk,2013-04-19 16:21:00,
2013-04-19 09:22:00,68.7,20.7,30.16,NE,35,9.0,11.0,16,0.00,,,0.00,701,WeatherHawk,2013-04-19 16:22:00,
2013-04-19 09:26:00,69.3,21.2,30.16,NNE,30,9.0,11.0,16,0.00,,,0.00,715,WeatherHawk,2013-04-19 16:26:00,
2013-04-19 09:27:00,69.4,21.3,30.16,NNE,28,8.0,11.0,16,0.00,,,0.00,720,WeatherHawk,2013-04-19 16:27:00,
2013-04-19 09:28:00,69.4,21.3,30.16,NNE,16,7.0,11.0,16,0.00,,,0.00,721,WeatherHawk,2013-04-19 16:28:00,
2013-04-19 09:29:00,69.6,21.4,30.16,NE,44,8.0,10.0,16,0.00,,,0.00,724,WeatherHawk,2013-04-19 16:29:00,
2013-04-19 09:33:00,69.8,23.0,30.16,NNE,25,8.0,10.0,17,0.00,,,0.00,739,WeatherHawk,2013-04-19 16:33:00,
2013-04-19 09:34:00,69.8,23.0,30.16,NE,37,9.0,10.0,17,0.00,,,0.00,741,WeatherHawk,2013-04-19 16:34:00,
2013-04-19 09:37:00,69.6,22.9,30.16,NE,54,9.0,10.0,17,0.00,,,0.00,751,WeatherHawk,2013-04-19 16:37:00,
2013-04-19 09:38:00,69.6,22.9,30.16,NE,54,9.0,-999.0,17,0.00,,,0.00,751,WeatherHawk,2013-04-19 16:38:00,
2013-04-19 09:41:00,70.0,23.2,30.16,NE,39,9.0,10.0,17,0.00,,,0.00,765,WeatherHawk,2013-04-19 16:41:00,
2013-04-19 09:42:00,70.0,23.2,30.16,NNE,29,7.0,10.0,17,0.00,,,0.00,766,WeatherHawk,2013-04-19 16:42:00,
2013-04-19 09:43:00,70.2,23.3,30.16,NNE,28,8.0,-999.0,17,0.00,,,0.00,770,WeatherHawk,2013-04-19 16:43:00,
2013-04-19 09:44:00,70.3,23.5,30.16,NE,44,7.0,10.0,17,0.00,,,0.00,765,WeatherHawk,2013-04-19 16:44:00,
2013-04-19 09:48:00,70.7,23.8,30.16,NNE,32,5.0,-999.0,17,0.00,,,0.00,784,WeatherHawk,2013-04-19 16:48:00,
2013-04-19 09:49:00,70.3,22.0,30.16,NNE,25,5.0,11.0,16,0.00,,,0.00,789,WeatherHawk,2013-04-19 16:49:00,
2013-04-19 09:51:00,70.3,23.5,30.16,NNE,31,5.0,11.0,17,0.00,,,0.00,795,WeatherHawk,2013-04-19 16:51:00,
2013-04-19 09:53:00,70.9,25.3,30.16,NNW,343,6.0,-999.0,18,0.00,,,0.00,798,WeatherHawk,2013-04-19 16:53:00,
2013-04-19 09:55:00,71.2,21.2,30.16,NE,38,7.0,11.0,15,0.00,,,0.00,807,WeatherHawk,2013-04-19 16:55:00,
2013-04-19 09:58:00,71.2,21.2,30.16,North,350,7.0,11.0,15,0.00,,,0.00,817,WeatherHawk,2013-04-19 16:58:00,
2013-04-19 09:59:00,71.2,21.2,30.16,NNE,20,8.0,0.0,15,0.00,,,0.00,818,WeatherHawk,2013-04-19 16:59:00,
2013-04-19 10:03:00,71.6,21.5,30.16,North,0,10.0,10.0,15,0.00,,,0.00,823,WeatherHawk,2013-04-19 17:03:00,
2013-04-19 10:04:00,71.8,21.7,30.16,NNE,32,8.0,10.0,15,0.00,,,0.00,835,WeatherHawk,2013-04-19 17:04:00,
2013-04-19 10:05:00,71.8,21.7,30.16,NE,34,8.0,10.0,15,0.00,,,0.00,840,WeatherHawk,2013-04-19 17:05:00,
2013-04-19 10:08:00,72.7,19.0,30.16,NNE,18,6.0,-999.0,13,0.00,,,0.00,845,WeatherHawk,2013-04-19 17:08:00,
2013-04-19 10:10:00,72.3,20.5,30.16,North,3,5.0,11.0,14,0.00,,,0.00,853,WeatherHawk,2013-04-19 17:10:00,
2013-04-19 10:12:00,72.1,18.6,30.16,NE,45,8.0,11.0,13,0.00,,,0.00,857,WeatherHawk,2013-04-19 17:12:00,
2013-04-19 10:13:00,72.5,18.9,30.16,NE,40,11.0,11.0,13,0.00,,,0.00,860,WeatherHawk,2013-04-19 17:13:00,
2013-04-19 10:17:00,73.6,19.7,30.16,North,11,10.0,11.0,13,0.00,,,0.00,866,WeatherHawk,2013-04-19 17:17:00,
2013-04-19 10:18:00,73.8,18.0,30.16,NNE,16,13.0,13.0,12,0.00,,,0.00,872,WeatherHawk,2013-04-19 17:18:00,
2013-04-19 10:21:00,72.7,17.2,30.16,NE,35,9.0,13.0,12,0.00,,,0.00,883,WeatherHawk,2013-04-19 17:21:00,
2013-04-19 10:23:00,72.9,17.3,30.16,NNE,24,8.0,-999.0,12,0.00,,,0.00,888,WeatherHawk,2013-04-19 17:23:00,
2013-04-19 10:26:00,73.0,17.4,30.16,North,10,12.0,13.0,12,0.00,,,0.00,896,WeatherHawk,2013-04-19 17:26:00,
2013-04-19 10:28:00,73.2,17.6,30.16,NE,38,6.0,13.0,12,0.00,,,0.00,902,WeatherHawk,2013-04-19 17:28:00,
2013-04-19 10:29:00,73.2,17.6,30.15,NNE,14,11.0,14.0,12,0.00,,,0.00,905,WeatherHawk,2013-04-19 17:29:00,
2013-04-19 10:33:00,73.2,17.6,30.15,NNE,14,11.0,14.0,12,0.00,,,0.00,914,WeatherHawk,2013-04-19 17:33:00,
2013-04-19 10:34:00,73.4,17.7,30.15,North,8,7.0,14.0,12,0.00,,,0.00,919,WeatherHawk,2013-04-19 17:34:00,
2013-04-19 10:38:00,73.8,13.8,30.16,NE,51,7.0,14.0,10,0.00,,,0.00,926,WeatherHawk,2013-04-19 17:38:00,
2013-04-19 10:40:00,73.9,16.1,30.16,NNE,31,7.0,14.0,11,0.00,,,0.00,929,WeatherHawk,2013-04-19 17:40:00,
2013-04-19 10:45:00,74.1,16.3,30.15,NE,38,8.0,14.0,11,0.00,,,0.00,943,WeatherHawk,2013-04-19 17:45:00,
2013-04-19 10:46:00,74.3,14.2,30.15,NNE,31,10.0,14.0,10,0.00,,,0.00,945,WeatherHawk,2013-04-19 17:46:00,
2013-04-19 10:47:00,73.9,13.9,30.15,NNE,32,7.0,14.0,10,0.00,,,0.00,946,WeatherHawk,2013-04-19 17:47:00,
2013-04-19 10:48:00,73.8,16.0,30.15,NNE,18,10.0,14.0,11,0.00,,,0.00,948,WeatherHawk,2013-04-19 17:48:00,
2013-04-19 10:51:00,73.4,15.7,30.15,NNE,32,7.0,15.0,11,0.00,,,0.00,953,WeatherHawk,2013-04-19 17:51:00,
2013-04-19 10:52:00,73.8,16.0,30.15,NNE,12,9.0,15.0,11,0.00,,,0.00,960,WeatherHawk,2013-04-19 17:52:00,
2013-04-19 10:53:00,73.8,16.0,30.15,NNE,12,9.0,-999.0,11,0.00,,,0.00,960,WeatherHawk,2013-04-19 17:53:00,
2013-04-19 10:55:00,73.9,16.1,30.15,NE,55,5.0,15.0,11,0.00,,,0.00,965,WeatherHawk,2013-04-19 17:55:00,
2013-04-19 10:58:00,74.5,16.5,30.15,North,349,9.0,-999.0,11,0.00,,,0.00,973,WeatherHawk,2013-04-19 17:58:00,
2013-04-19 10:59:00,74.7,14.5,30.15,NE,46,11.0,15.0,10,0.00,,,0.00,974,WeatherHawk,2013-04-19 17:59:00,
2013-04-19 11:01:00,74.8,14.6,30.15,NNE,30,11.0,15.0,10,0.00,,,0.00,976,WeatherHawk,2013-04-19 18:01:00,
2013-04-19 11:02:00,74.7,14.5,30.15,North,8,8.0,15.0,10,0.00,,,0.00,979,WeatherHawk,2013-04-19 18:02:00,
2013-04-19 11:03:00,74.3,14.2,30.15,NNE,17,6.0,15.0,10,0.00,,,0.00,981,WeatherHawk,2013-04-19 18:03:00,
2013-04-19 11:05:00,74.7,14.5,30.15,NNE,28,10.0,15.0,10,0.00,,,0.00,985,WeatherHawk,2013-04-19 18:05:00,
2013-04-19 11:09:00,74.7,14.5,30.15,NE,42,6.0,13.0,10,0.00,,,0.00,988,WeatherHawk,2013-04-19 18:09:00,
2013-04-19 11:11:00,74.8,14.6,30.15,NNE,13,10.0,13.0,10,0.00,,,0.00,995,WeatherHawk,2013-04-19 18:11:00,
2013-04-19 11:13:00,74.8,14.6,30.14,NNE,15,12.0,13.0,10,0.00,,,0.00,1000,WeatherHawk,2013-04-19 18:13:00,
2013-04-19 11:14:00,74.8,14.6,30.14,NNE,16,10.0,13.0,10,0.00,,,0.00,999,WeatherHawk,2013-04-19 18:14:00,
2013-04-19 11:17:00,75.0,17.0,30.14,NE,42,9.0,13.0,11,0.00,,,0.00,1008,WeatherHawk,2013-04-19 18:17:00,
2013-04-19 11:18:00,74.7,16.7,30.14,NE,52,5.0,13.0,11,0.00,,,0.00,1009,WeatherHawk,2013-04-19 18:18:00,
2013-04-19 11:19:00,74.7,16.7,30.14,NNE,30,9.0,0.0,11,0.00,,,0.00,1009,WeatherHawk,2013-04-19 18:19:00,
2013-04-19 11:22:00,75.2,14.9,30.14,NNE,22,7.0,13.0,10,0.00,,,0.00,1016,WeatherHawk,2013-04-19 18:22:00,
2013-04-19 11:24:00,75.6,17.4,30.14,NNE,27,10.0,13.0,11,0.00,,,0.00,1016,WeatherHawk,2013-04-19 18:24:00,
2013-04-19 11:25:00,76.1,17.8,30.14,NNE,18,7.0,13.0,11,0.00,,,0.00,1022,WeatherHawk,2013-04-19 18:25:00,
2013-04-19 11:28:00,75.7,17.5,30.14,NNE,33,6.0,-999.0,11,0.00,,,0.00,1027,WeatherHawk,2013-04-19 18:28:00,
2013-04-19 11:30:00,75.9,15.4,30.13,NE,39,13.0,13.0,10,0.00,,,0.00,1028,WeatherHawk,2013-04-19 18:30:00,
2013-04-19 11:31:00,75.9,15.4,30.13,NNE,30,9.0,13.0,10,0.00,,,0.00,1026,WeatherHawk,2013-04-19 18:31:00,
2013-04-19 11:32:00,75.7,15.3,30.13,NE,44,11.0,13.0,10,0.00,,,0.00,1031,WeatherHawk,2013-04-19 18:32:00,
2013-04-19 11:33:00,75.4,15.0,30.13,NNE,17,8.0,13.0,10,0.00,,,0.00,1034,WeatherHawk,2013-04-19 18:33:00,
2013-04-19 11:36:00,75.6,15.2,30.13,NNE,26,10.0,13.0,10,0.00,,,0.00,1039,WeatherHawk,2013-04-19 18:36:00,
2013-04-19 11:37:00,75.7,12.9,30.13,NE,53,8.0,13.0,9,0.00,,,0.00,1037,WeatherHawk,2013-04-19 18:37:00,
2013-04-19 11:38:00,75.7,12.9,30.13,ENE,67,6.0,13.0,9,0.00,,,0.00,1040,WeatherHawk,2013-04-19 18:38:00,
2013-04-19 11:40:00,76.6,13.6,30.13,ENE,70,11.0,15.0,9,0.00,,,0.00,1039,WeatherHawk,2013-04-19 18:40:00,
2013-04-19 11:43:00,75.9,13.1,30.13,ENE,63,6.0,15.0,9,0.00,,,0.00,1047,WeatherHawk,2013-04-19 18:43:00,
2013-04-19 11:47:00,76.6,13.6,30.12,NE,37,9.0,15.0,9,0.00,,,0.00,1052,WeatherHawk,2013-04-19 18:47:00,
2013-04-19 11:48:00,76.8,13.7,30.12,NNE,27,9.0,-999.0,9,0.00,,,0.00,1051,WeatherHawk,2013-04-19 18:48:00,
2013-04-19 11:50:00,76.5,13.5,30.12,NE,48,6.0,15.0,9,0.00,,,0.00,1054,WeatherHawk,2013-04-19 18:50:00,
2013-04-19 11:53:00,76.8,13.7,30.12,NNE,17,10.0,-999.0,9,0.00,,,0.00,1058,WeatherHawk,2013-04-19 18:53:00,
2013-04-19 11:54:00,76.8,11.1,30.12,NE,47,13.0,15.0,8,0.00,,,0.00,1058,WeatherHawk,2013-04-19 18:54:00,
2013-04-19 11:58:00,77.0,11.2,30.12,NNE,18,10.0,15.0,8,0.00,,,0.00,1067,WeatherHawk,2013-04-19 18:58:00,
2013-04-19 12:00:00,76.6,10.9,30.12,NE,46,12.0,13.0,8,0.00,,,0.00,1067,WeatherHawk,2013-04-19 19:00:00,
2013-04-19 12:01:00,76.6,13.6,30.12,NNE,29,5.0,13.0,9,0.00,,,0.00,1068,WeatherHawk,2013-04-19 19:01:00,
2013-04-19 12:03:00,76.6,13.6,30.12,NNE,16,6.0,-999.0,9,0.00,,,0.00,1067,WeatherHawk,2013-04-19 19:03:00,
2013-04-19 12:04:00,77.2,14.0,30.12,NE,47,5.0,13.0,9,0.00,,,0.00,1067,WeatherHawk,2013-04-19 19:04:00,
2013-04-19 12:07:00,77.5,11.6,30.12,NNE,25,11.0,13.0,8,0.00,,,0.00,1072,WeatherHawk,2013-04-19 19:07:00,
2013-04-19 12:08:00,77.2,8.4,30.12,NE,48,10.0,13.0,7,0.00,,,0.00,1073,WeatherHawk,2013-04-19 19:08:00,
2013-04-19 12:10:00,76.6,16.0,30.11,NNE,12,5.0,12.0,10,0.00,,,0.00,1072,WeatherHawk,2013-04-19 19:10:00,
2013-04-19 12:13:00,77.4,16.5,30.11,NNW,346,9.0,12.0,10,0.00,,,0.00,1069,WeatherHawk,2013-04-19 19:13:00,
2013-04-19 12:18:00,77.2,14.0,30.11,ENE,66,7.0,12.0,9,0.00,,,0.00,1077,WeatherHawk,2013-04-19 19:18:00,
2013-04-19 12:20:00,77.2,14.0,30.11,North,6,9.0,12.0,9,0.00,,,0.00,1077,WeatherHawk,2013-04-19 19:20:00,
2013-04-19 12:23:00,77.5,14.3,30.11,NE,54,9.0,12.0,9,0.00,,,0.00,1082,WeatherHawk,2013-04-19 19:23:00,
2013-04-19 12:24:00,77.9,14.5,30.11,NNE,21,11.0,12.0,9,0.00,,,0.00,1082,WeatherHawk,2013-04-19 19:24:00,
2013-04-19 12:25:00,77.9,14.5,30.11,NNE,23,6.0,12.0,9,0.00,,,0.00,1082,WeatherHawk,2013-04-19 19:25:00,
2013-04-19 12:27:00,77.5,14.3,30.11,NE,51,8.0,12.0,9,0.00,,,0.00,1082,WeatherHawk,2013-04-19 19:27:00,
2013-04-19 12:28:00,77.5,14.3,30.11,NE,51,8.0,12.0,9,0.00,,,0.00,1082,WeatherHawk,2013-04-19 19:28:00,
2013-04-19 12:31:00,78.3,14.8,30.10,North,352,11.0,13.0,9,0.00,,,0.00,1081,WeatherHawk,2013-04-19 19:31:00,
2013-04-19 12:33:00,78.4,14.9,30.10,North,352,9.0,13.0,9,0.00,,,0.00,1083,WeatherHawk,2013-04-19 19:33:00,
2013-04-19 12:34:00,78.3,14.8,30.10,NNW,342,9.0,13.0,9,0.00,,,0.00,1084,WeatherHawk,2013-04-19 19:34:00,
2013-04-19 12:35:00,78.1,14.7,30.10,North,1,10.0,13.0,9,0.00,,,0.00,1082,WeatherHawk,2013-04-19 19:35:00,
2013-04-19 12:37:00,77.9,14.5,30.10,NNW,345,6.0,13.0,9,0.00,,,0.00,1084,WeatherHawk,2013-04-19 19:37:00,
2013-04-19 12:38:00,77.9,14.5,30.10,NNW,345,6.0,-999.0,9,0.00,,,0.00,1084,WeatherHawk,2013-04-19 19:38:00,
2013-04-19 12:40:00,77.7,14.4,30.10,NNE,32,6.0,11.0,9,0.00,,,0.00,1083,WeatherHawk,2013-04-19 19:40:00,
2013-04-19 12:41:00,77.7,14.4,30.10,NNW,336,7.0,11.0,9,0.00,,,0.00,1082,WeatherHawk,2013-04-19 19:41:00,
2013-04-19 12:42:00,77.9,11.9,30.10,NNW,335,6.0,11.0,8,0.00,,,0.00,1083,WeatherHawk,2013-04-19 19:42:00,
2013-04-19 12:43:00,77.9,11.9,30.10,NNW,335,6.0,11.0,8,0.00,,,0.00,1083,WeatherHawk,2013-04-19 19:43:00,
2013-04-19 12:46:00,78.3,14.8,30.10,NNW,342,8.0,11.0,9,0.00,,,0.00,1080,WeatherHawk,2013-04-19 19:46:00,
2013-04-19 12:47:00,78.4,14.9,30.10,NNW,333,8.0,11.0,9,0.00,,,0.00,1079,WeatherHawk,2013-04-19 19:47:00,
2013-04-19 12:48:00,78.4,14.9,30.10,NNW,333,8.0,11.0,9,0.00,,,0.00,1079,WeatherHawk,2013-04-19 19:48:00,
2013-04-19 12:53:00,78.6,17.5,30.09,NNE,31,4.0,10.0,10,0.00,,,0.00,1078,WeatherHawk,2013-04-19 19:53:00,
2013-04-19 12:54:00,78.8,15.2,30.09,NNW,336,8.0,10.0,9,0.00,,,0.00,1079,WeatherHawk,2013-04-19 19:54:00,
2013-04-19 12:56:00,78.8,15.2,30.09,NNW,338,5.0,10.0,9,0.00,,,0.00,1078,WeatherHawk,2013-04-19 19:56:00,
2013-04-19 12:58:00,78.6,15.1,30.09,NW,304,6.0,-999.0,9,0.00,,,0.00,1078,WeatherHawk,2013-04-19 19:58:00,
2013-04-19 13:00:00,79.5,15.8,30.09,North,359,10.0,10.0,9,0.00,,,0.00,1078,WeatherHawk,2013-04-19 20:00:00,
2013-04-19 13:02:00,79.0,15.3,30.09,North,8,6.0,9.0,9,0.00,,,0.00,1077,WeatherHawk,2013-04-19 20:02:00,
2013-04-19 13:03:00,78.6,15.1,30.09,North,2,6.0,9.0,9,0.00,,,0.00,1078,WeatherHawk,2013-04-19 20:03:00,
2013-04-19 13:05:00,78.6,15.1,30.09,North,3,4.0,9.0,9,0.00,,,0.00,1074,WeatherHawk,2013-04-19 20:05:00,
2013-04-19 13:07:00,79.0,15.3,30.09,SW,222,1.0,9.0,9,0.00,,,0.00,1072,WeatherHawk,2013-04-19 20:07:00,
2013-04-19 13:08:00,79.0,15.3,30.09,SW,222,1.0,9.0,9,0.00,,,0.00,1072,WeatherHawk,2013-04-19 20:08:00,
2013-04-19 13:10:00,79.7,15.9,30.09,NW,307,4.0,12.0,9,0.00,,,0.00,1069,WeatherHawk,2013-04-19 20:10:00,
2013-04-19 13:12:00,79.9,16.0,30.08,NNE,32,5.0,12.0,9,0.00,,,0.00,1067,WeatherHawk,2013-04-19 20:12:00,
2013-04-19 13:13:00,79.9,16.0,30.08,NNW,346,6.0,-999.0,9,0.00,,,0.00,1070,WeatherHawk,2013-04-19 20:13:00,
2013-04-19 13:14:00,79.3,15.6,30.08,NE,50,4.0,12.0,9,0.00,,,0.00,1070,WeatherHawk,2013-04-19 20:14:00,
2013-04-19 13:16:00,79.2,15.5,30.08,SE,140,1.0,12.0,9,0.00,,,0.00,1068,WeatherHawk,2013-04-19 20:16:00,
2013-04-19 13:17:00,79.5,15.8,30.08,North,7,4.0,12.0,9,0.00,,,0.00,1067,WeatherHawk,2013-04-19 20:17:00,
2013-04-19 13:18:00,79.5,15.8,30.08,North,7,4.0,-999.0,9,0.00,,,0.00,1067,WeatherHawk,2013-04-19 20:18:00,
2013-04-19 13:20:00,79.7,13.2,30.08,NNE,27,8.0,8.0,8,0.00,,,0.00,1065,WeatherHawk,2013-04-19 20:20:00,
2013-04-19 13:22:00,79.9,10.3,30.08,NNE,24,9.0,9.0,7,0.00,,,0.00,1062,WeatherHawk,2013-04-19 20:22:00,
2013-04-19 13:25:00,80.1,13.5,30.07,North,7,10.0,10.0,8,0.00,,,0.00,1063,WeatherHawk,2013-04-19 20:25:00,
2013-04-19 13:26:00,79.9,13.3,30.07,NNW,345,8.0,8.0,8,0.00,,,0.00,1064,WeatherHawk,2013-04-19 20:26:00,
2013-04-19 13:27:00,79.7,10.2,30.07,NNW,341,8.0,8.0,7,0.00,,,0.00,1063,WeatherHawk,2013-04-19 20:27:00,
2013-04-19 13:30:00,79.5,10.1,30.07,North,9,3.0,13.0,7,0.00,,,0.00,1059,WeatherHawk,2013-04-19 20:30:00,
2013-04-19 13:31:00,80.4,13.7,30.07,North,8,4.0,13.0,8,0.00,,,0.00,1057,WeatherHawk,2013-04-19 20:31:00,
2013-04-19 13:33:00,80.8,14.0,30.07,North,356,14.0,14.0,8,0.00,,,0.00,1055,WeatherHawk,2013-04-19 20:33:00,
2013-04-19 13:36:00,79.7,13.2,30.07,NNE,30,4.0,13.0,8,0.00,,,0.00,1051,WeatherHawk,2013-04-19 20:36:00,
2013-04-19 13:38:00,79.7,13.2,30.07,NNE,19,2.0,13.0,8,0.00,,,0.00,1050,WeatherHawk,2013-04-19 20:38:00,
2013-04-19 13:40:00,80.2,13.6,30.07,North,351,2.0,14.0,8,0.00,,,0.00,1045,WeatherHawk,2013-04-19 20:40:00,
2013-04-19 13:41:00,80.4,13.7,30.07,NNE,14,5.0,14.0,8,0.00,,,0.00,1044,WeatherHawk,2013-04-19 20:41:00,
2013-04-19 13:42:00,80.4,13.7,30.07,NNE,19,5.0,14.0,8,0.00,,,0.00,1042,WeatherHawk,2013-04-19 20:42:00,
2013-04-19 13:43:00,80.2,13.6,30.07,NNE,25,7.0,14.0,8,0.00,,,0.00,1041,WeatherHawk,2013-04-19 20:43:00,
2013-04-19 13:46:00,80.2,13.6,30.06,NE,47,7.0,14.0,8,0.00,,,0.00,1033,WeatherHawk,2013-04-19 20:46:00,
2013-04-19 13:48:00,80.2,13.6,30.06,NE,34,9.0,-999.0,8,0.00,,,0.00,1033,WeatherHawk,2013-04-19 20:48:00,
2013-04-19 13:49:00,80.2,13.6,30.06,North,8,4.0,9.0,8,0.00,,,0.00,1030,WeatherHawk,2013-04-19 20:49:00,
2013-04-19 13:53:00,80.8,21.4,30.06,WSW,256,4.0,-999.0,11,0.00,,,0.00,1028,WeatherHawk,2013-04-19 20:53:00,
2013-04-19 13:54:00,80.6,23.3,30.06,NNW,342,4.0,9.0,12,0.00,,,0.00,1022,WeatherHawk,2013-04-19 20:54:00,
2013-04-19 13:55:00,80.6,19.0,30.06,NW,326,4.0,9.0,10,0.00,,,0.00,1018,WeatherHawk,2013-04-19 20:55:00,
2013-04-19 13:58:00,80.8,14.0,30.06,SE,132,3.0,9.0,8,0.00,,,0.00,1022,WeatherHawk,2013-04-19 20:58:00,
2013-04-19 14:00:00,81.1,14.3,30.05,NNE,29,2.0,10.0,8,0.00,,,0.00,1017,WeatherHawk,2013-04-19 21:00:00,
2013-04-19 14:01:00,81.1,11.3,30.05,ENE,73,2.0,10.0,7,0.00,,,0.00,1016,WeatherHawk,2013-04-19 21:01:00,
2013-04-19 14:03:00,81.0,14.1,30.05,SE,136,1.0,-999.0,8,0.00,,,0.00,1013,WeatherHawk,2013-04-19 21:03:00,
2013-04-19 14:06:00,81.1,14.3,30.05,NNE,21,9.0,10.0,8,0.00,,,0.00,1005,WeatherHawk,2013-04-19 21:06:00,
2013-04-19 14:07:00,81.1,14.3,30.05,NNE,13,12.0,12.0,8,0.00,,,0.00,1002,WeatherHawk,2013-04-19 21:07:00,
2013-04-19 14:08:00,81.1,14.3,30.05,NNE,13,12.0,12.0,8,0.00,,,0.00,1002,WeatherHawk,2013-04-19 21:08:00,
2013-04-19 14:09:00,80.4,13.7,30.05,North,357,3.0,13.0,8,0.00,,,0.00,1000,WeatherHawk,2013-04-19 21:09:00,
2013-04-19 14:11:00,80.6,13.9,30.05,NNE,33,2.0,13.0,8,0.00,,,0.00,1000,WeatherHawk,2013-04-19 21:11:00,
2013-04-19 14:12:00,80.8,14.0,30.04,North,2,3.0,13.0,8,0.00,,,0.00,995,WeatherHawk,2013-04-19 21:12:00,
2013-04-19 14:13:00,80.8,14.0,30.04,North,2,3.0,13.0,8,0.00,,,0.00,995,WeatherHawk,2013-04-19 21:13:00,
2013-04-19 14:15:00,81.3,19.5,30.04,SSW,207,2.0,13.0,10,0.00,,,0.00,987,WeatherHawk,2013-04-19 21:15:00,
2013-04-19 14:18:00,81.3,19.5,30.04,SSW,208,0.0,13.0,10,0.00,,,0.00,984,WeatherHawk,2013-04-19 21:18:00,
2013-04-19 14:21:00,81.7,19.8,30.04,WSW,239,3.0,9.0,10,0.00,,,0.00,980,WeatherHawk,2013-04-19 21:21:00,
2013-04-19 14:23:00,81.7,19.8,30.04,WNW,303,9.0,-999.0,10,0.00,,,0.00,972,WeatherHawk,2013-04-19 21:23:00,
2013-04-19 14:24:00,81.9,20.0,30.04,WNW,295,6.0,9.0,10,0.00,,,0.00,972,WeatherHawk,2013-04-19 21:24:00,
2013-04-19 14:26:00,81.5,19.7,30.03,NW,316,4.0,9.0,10,0.00,,,0.00,968,WeatherHawk,2013-04-19 21:26:00,
2013-04-19 14:28:00,81.5,21.9,30.03,WNW,299,7.0,9.0,11,0.00,,,0.00,964,WeatherHawk,2013-04-19 21:28:00,
2013-04-19 14:30:00,81.7,17.4,30.03,WNW,292,7.0,9.0,9,0.00,,,0.00,962,WeatherHawk,2013-04-19 21:30:00,
2013-04-19 14:31:00,81.7,17.4,30.03,WNW,290,11.0,11.0,9,0.00,,,0.00,957,WeatherHawk,2013-04-19 21:31:00,
2013-04-19 14:33:00,81.9,17.5,30.03,West,263,8.0,9.0,9,0.00,,,0.00,954,WeatherHawk,2013-04-19 21:33:00,
2013-04-19 14:38:00,81.7,19.8,30.03,WNW,282,8.0,9.0,10,0.00,,,0.00,942,WeatherHawk,2013-04-19 21:38:00,
2013-04-19 14:39:00,82.0,20.1,30.02,West,279,6.0,13.0,10,0.00,,,0.00,937,WeatherHawk,2013-04-19 21:39:00,
2013-04-19 14:41:00,82.0,17.6,30.02,West,271,9.0,13.0,9,0.00,,,0.00,935,WeatherHawk,2013-04-19 21:41:00,
2013-04-19 14:43:00,81.9,17.5,30.02,West,265,5.0,-999.0,9,0.00,,,0.00,928,WeatherHawk,2013-04-19 21:43:00,
2013-04-19 14:45:00,81.7,19.8,30.02,WSW,253,4.0,13.0,10,0.00,,,0.00,927,WeatherHawk,2013-04-19 21:45:00,
2013-04-19 14:46:00,81.9,17.5,30.02,WNW,284,7.0,13.0,9,0.00,,,0.00,921,WeatherHawk,2013-04-19 21:46:00,
2013-04-19 14:47:00,81.7,14.7,30.02,West,270,9.0,13.0,8,0.00,,,0.00,918,WeatherHawk,2013-04-19 21:47:00,
2013-04-19 14:51:00,81.5,17.2,30.02,West,277,7.0,11.0,9,0.00,,,0.00,909,WeatherHawk,2013-04-19 21:51:00,
2013-04-19 14:52:00,81.5,14.5,30.01,West,275,9.0,11.0,8,0.00,,,0.00,909,WeatherHawk,2013-04-19 21:52:00,
2013-04-19 14:53:00,81.5,14.5,30.01,West,275,9.0,11.0,8,0.00,,,0.00,909,WeatherHawk,2013-04-19 21:53:00,
2013-04-19 14:57:00,82.0,17.6,30.01,WNW,285,8.0,11.0,9,0.00,,,0.00,894,WeatherHawk,2013-04-19 21:57:00,
2013-04-19 14:58:00,81.9,14.8,30.01,WNW,284,8.0,-999.0,8,0.00,,,0.00,894,WeatherHawk,2013-04-19 21:58:00,
2013-04-19 14:59:00,81.7,14.7,30.01,WNW,297,6.0,10.0,8,0.00,,,0.00,886,WeatherHawk,2013-04-19 21:59:00,
2013-04-19 15:01:00,81.5,14.5,30.01,NNW,335,3.0,10.0,8,0.00,,,0.00,884,WeatherHawk,2013-04-19 22:01:00,
2013-04-19 15:03:00,81.7,17.4,30.01,WNW,296,5.0,-999.0,9,0.00,,,0.00,878,WeatherHawk,2013-04-19 22:03:00,
2013-04-19 15:06:00,81.9,14.8,30.00,WNW,290,7.0,10.0,8,0.00,,,0.00,868,WeatherHawk,2013-04-19 22:06:00,
2013-04-19 15:08:00,81.7,14.7,30.00,WNW,292,5.0,-999.0,8,0.00,,,0.00,865,WeatherHawk,2013-04-19 22:08:00,
2013-04-19 15:13:00,82.0,17.6,30.00,NNW,331,5.0,10.0,9,0.00,,,0.00,849,WeatherHawk,2013-04-19 22:13:00,
2013-04-19 15:14:00,81.7,14.7,30.00,NNW,334,2.0,10.0,8,0.00,,,0.00,845,WeatherHawk,2013-04-19 22:14:00,
2013-04-19 15:18:00,82.0,20.1,30.00,West,275,5.0,10.0,10,0.00,,,0.00,837,WeatherHawk,2013-04-19 22:18:00,
2013-04-19 15:21:00,82.2,17.8,29.99,NW,318,6.0,8.0,9,0.00,,,0.00,825,WeatherHawk,2013-04-19 22:21:00,
2013-04-19 15:23:00,82.2,20.2,29.99,WNW,296,6.0,8.0,10,0.00,,,0.00,822,WeatherHawk,2013-04-19 22:23:00,
2013-04-19 15:24:00,82.4,20.4,29.99,West,264,8.0,8.0,10,0.00,,,0.00,813,WeatherHawk,2013-04-19 22:24:00,
2013-04-19 15:25:00,82.2,17.8,29.99,NW,314,7.0,8.0,9,0.00,,,0.00,812,WeatherHawk,2013-04-19 22:25:00,
2013-04-19 15:28:00,82.0,20.1,29.99,West,279,5.0,8.0,10,0.00,,,0.00,807,WeatherHawk,2013-04-19 22:28:00,
2013-04-19 15:31:00,82.2,15.1,29.99,West,268,9.0,9.0,8,0.00,,,0.00,793,WeatherHawk,2013-04-19 22:31:00,
2013-04-19 15:33:00,82.2,15.1,29.99,West,270,7.0,9.0,8,0.00,,,0.00,786,WeatherHawk,2013-04-19 22:33:00,
2013-04-19 15:34:00,82.0,17.6,29.99,West,264,5.0,9.0,9,0.00,,,0.00,785,WeatherHawk,2013-04-19 22:34:00,
2013-04-19 15:37:00,82.2,17.8,29.99,WNW,287,7.0,9.0,9,0.00,,,0.00,775,WeatherHawk,2013-04-19 22:37:00,
2013-04-19 15:38:00,82.2,17.8,29.99,WNW,287,7.0,-999.0,9,0.00,,,0.00,775,WeatherHawk,2013-04-19 22:38:00,
2013-04-19 15:42:00,82.6,12.3,29.99,NNW,337,2.0,10.0,7,0.00,,,0.00,759,WeatherHawk,2013-04-19 22:42:00,
2013-04-19 15:43:00,82.6,12.3,29.99,NNW,337,2.0,10.0,7,0.00,,,0.00,759,WeatherHawk,2013-04-19 22:43:00,
2013-04-19 15:44:00,82.8,18.2,29.98,WNW,299,5.0,10.0,9,0.00,,,0.00,749,WeatherHawk,2013-04-19 22:44:00,
2013-04-19 15:47:00,82.8,12.4,29.98,NNW,328,3.0,10.0,7,0.00,,,0.00,741,WeatherHawk,2013-04-19 22:47:00,
2013-04-19 15:48:00,82.8,12.4,29.98,NNW,328,3.0,-999.0,7,0.00,,,0.00,741,WeatherHawk,2013-04-19 22:48:00,
2013-04-19 15:51:00,82.8,22.9,29.98,West,274,8.0,9.0,11,0.00,,,0.00,729,WeatherHawk,2013-04-19 22:51:00,
2013-04-19 15:52:00,82.8,15.5,29.98,West,268,4.0,9.0,8,0.00,,,0.00,723,WeatherHawk,2013-04-19 22:52:00,
2013-04-19 15:53:00,82.8,20.6,29.98,WNW,284,7.0,9.0,10,0.00,,,0.00,723,WeatherHawk,2013-04-19 22:53:00,
2013-04-19 15:56:00,82.2,17.8,29.98,West,266,7.0,9.0,9,0.00,,,0.00,709,WeatherHawk,2013-04-19 22:56:00,
2013-04-19 15:57:00,82.4,20.4,29.98,West,272,4.0,9.0,10,0.00,,,0.00,704,WeatherHawk,2013-04-19 22:57:00,
2013-04-19 15:58:00,82.4,20.4,29.98,West,272,4.0,9.0,10,0.00,,,0.00,704,WeatherHawk,2013-04-19 22:58:00,
2013-04-19 16:00:00,82.4,15.2,29.98,West,264,7.0,9.0,8,0.00,,,0.00,695,WeatherHawk,2013-04-19 23:00:00,
2013-04-19 16:03:00,82.4,12.2,29.98,WNW,293,6.0,9.0,7,0.00,,,0.00,686,WeatherHawk,2013-04-19 23:03:00,
2013-04-19 16:06:00,82.4,20.4,29.98,West,281,6.0,9.0,10,0.00,,,0.00,676,WeatherHawk,2013-04-19 23:06:00,
2013-04-19 16:07:00,82.4,17.9,29.97,West,273,6.0,9.0,9,0.00,,,0.00,671,WeatherHawk,2013-04-19 23:07:00,
2013-04-19 16:08:00,82.4,17.9,29.97,West,273,6.0,9.0,9,0.00,,,0.00,671,WeatherHawk,2013-04-19 23:08:00,
2013-04-19 16:09:00,82.6,15.3,29.97,WNW,302,4.0,9.0,8,0.00,,,0.00,665,WeatherHawk,2013-04-19 23:09:00,
2013-04-19 16:13:00,82.6,15.3,29.97,West,275,6.0,-999.0,8,0.00,,,0.00,656,WeatherHawk,2013-04-19 23:13:00,
2013-04-19 16:14:00,82.4,15.2,29.97,West,264,6.0,9.0,8,0.00,,,0.00,646,WeatherHawk,2013-04-19 23:14:00,
2013-04-19 16:15:00,82.4,17.9,29.97,West,266,4.0,9.0,9,0.00,,,0.00,643,WeatherHawk,2013-04-19 23:15:00,
2013-04-19 16:17:00,82.6,15.3,29.97,WNW,298,6.0,9.0,8,0.00,,,0.00,636,WeatherHawk,2013-04-19 23:17:00,
2013-04-19 16:18:00,82.6,15.3,29.97,West,280,6.0,9.0,8,0.00,,,0.00,633,WeatherHawk,2013-04-19 23:18:00,
2013-04-19 16:19:00,82.9,15.6,29.97,West,265,4.0,9.0,8,0.00,,,0.00,628,WeatherHawk,2013-04-19 23:19:00,
2013-04-19 16:21:00,82.9,12.6,29.97,WNW,283,4.0,9.0,7,0.00,,,0.00,619,WeatherHawk,2013-04-19 23:21:00,
2013-04-19 16:23:00,82.9,15.6,29.96,WNW,303,4.0,9.0,8,0.00,,,0.00,617,WeatherHawk,2013-04-19 23:23:00,
2013-04-19 16:28:00,82.9,15.6,29.96,WNW,284,3.0,9.0,8,0.00,,,0.00,599,WeatherHawk,2013-04-19 23:28:00,
2013-04-19 16:29:00,83.1,12.7,29.96,WNW,302,6.0,6.0,7,0.00,,,0.00,588,WeatherHawk,2013-04-19 23:29:00,
2013-04-19 16:30:00,83.1,12.7,29.96,WNW,298,6.0,6.0,7,0.00,,,0.00,587,WeatherHawk,2013-04-19 23:30:00,
2013-04-19 16:33:00,82.9,12.6,29.96,WNW,298,5.0,6.0,7,0.00,,,0.00,576,WeatherHawk,2013-04-19 23:33:00,
2013-04-19 16:34:00,82.9,15.6,29.96,WSW,258,6.0,6.0,8,0.00,,,0.00,573,WeatherHawk,2013-04-19 23:34:00,
2013-04-19 16:35:00,82.9,12.6,29.96,WSW,246,5.0,6.0,7,0.00,,,0.00,565,WeatherHawk,2013-04-19 23:35:00,
2013-04-19 16:36:00,82.9,12.6,29.96,West,266,3.0,6.0,7,0.00,,,0.00,562,WeatherHawk,2013-04-19 23:36:00,
2013-04-19 16:37:00,83.1,12.7,29.96,SW,232,3.0,6.0,7,0.00,,,0.00,559,WeatherHawk,2013-04-19 23:37:00,
2013-04-19 16:39:00,83.3,12.8,29.96,West,265,5.0,7.0,7,0.00,,,0.00,554,WeatherHawk,2013-04-19 23:39:00,
2013-04-19 16:42:00,82.9,15.6,29.96,WSW,243,7.0,7.0,8,0.00,,,0.00,539,WeatherHawk,2013-04-19 23:42:00,
2013-04-19 16:43:00,82.9,15.6,29.96,WSW,243,7.0,7.0,8,0.00,,,0.00,539,WeatherHawk,2013-04-19 23:43:00,
2013-04-19 16:45:00,82.8,15.5,29.96,WSW,247,5.0,7.0,8,0.00,,,0.00,526,WeatherHawk,2013-04-19 23:45:00,
2013-04-19 16:48:00,82.8,12.4,29.96,WSW,257,5.0,7.0,7,0.00,,,0.00,520,WeatherHawk,2013-04-19 23:48:00,
2013-04-19 16:49:00,82.8,18.2,29.96,WNW,286,6.0,8.0,9,0.00,,,0.00,514,WeatherHawk,2013-04-19 23:49:00,
2013-04-19 16:51:00,82.8,18.2,29.96,West,264,5.0,8.0,9,0.00,,,0.00,504,WeatherHawk,2013-04-19 23:51:00,
2013-04-19 16:54:00,82.9,15.6,29.96,WNW,301,6.0,8.0,8,0.00,,,0.00,493,WeatherHawk,2013-04-19 23:54:00,
2013-04-19 16:57:00,82.8,15.5,29.96,WNW,300,6.0,8.0,8,0.00,,,0.00,481,WeatherHawk,2013-04-19 23:57:00,
2013-04-19 16:58:00,82.8,15.5,29.96,WNW,300,6.0,-999.0,8,0.00,,,0.00,481,WeatherHawk,2013-04-19 23:58:00,
2013-04-19 17:01:00,82.9,15.6,29.96,WNW,297,5.0,9.0,8,0.00,,,0.00,466,WeatherHawk,2013-04-20 00:01:00,
2013-04-19 17:02:00,83.1,18.4,29.96,WSW,250,5.0,9.0,9,0.00,,,0.00,460,WeatherHawk,2013-04-20 00:02:00,
2013-04-19 17:03:00,83.1,18.4,29.96,WSW,250,5.0,9.0,9,0.00,,,0.00,460,WeatherHawk,2013-04-20 00:03:00,
2013-04-19 17:06:00,83.1,18.4,29.96,West,261,4.0,9.0,9,0.00,,,0.00,442,WeatherHawk,2013-04-20 00:06:00,
2013-04-19 17:07:00,83.3,18.6,29.96,West,265,4.0,9.0,9,0.00,,,0.00,438,WeatherHawk,2013-04-20 00:07:00,
2013-04-19 17:08:00,83.3,18.6,29.96,West,265,4.0,9.0,9,0.00,,,0.00,438,WeatherHawk,2013-04-20 00:08:00,
2013-04-19 17:09:00,83.1,15.7,29.95,West,275,5.0,0.0,8,0.00,,,0.00,429,WeatherHawk,2013-04-20 00:09:00,
2013-04-19 17:13:00,83.3,18.6,29.95,West,260,5.0,6.0,9,0.00,,,0.00,416,WeatherHawk,2013-04-20 00:13:00,
2013-04-19 17:15:00,83.1,18.4,29.95,SW,222,8.0,8.0,9,0.00,,,0.00,406,WeatherHawk,2013-04-20 00:15:00,
2013-04-19 17:16:00,82.8,15.5,29.95,SSW,209,6.0,6.0,8,0.00,,,0.00,399,WeatherHawk,2013-04-20 00:16:00,
2013-04-19 17:18:00,82.6,15.3,29.95,SSW,195,4.0,6.0,8,0.00,,,0.00,397,WeatherHawk,2013-04-20 00:18:00,
2013-04-19 17:19:00,82.8,18.2,29.95,SW,221,5.0,10.0,9,0.00,,,0.00,388,WeatherHawk,2013-04-20 00:19:00,
2013-04-19 17:20:00,82.8,18.2,29.95,SW,215,4.0,10.0,9,0.00,,,0.00,383,WeatherHawk,2013-04-20 00:20:00,
2013-04-19 17:22:00,82.8,15.5,29.95,SW,232,6.0,10.0,8,0.00,,,0.00,378,WeatherHawk,2013-04-20 00:22:00,
2013-04-19 17:23:00,82.8,15.5,29.95,SW,232,6.0,10.0,8,0.00,,,0.00,378,WeatherHawk,2013-04-20 00:23:00,
2013-04-19 17:25:00,82.8,15.5,29.95,SW,220,6.0,10.0,8,0.00,,,0.00,365,WeatherHawk,2013-04-20 00:25:00,
2013-04-19 17:26:00,82.8,15.5,29.95,SSW,211,6.0,10.0,8,0.00,,,0.00,361,WeatherHawk,2013-04-20 00:26:00,
2013-04-19 17:28:00,82.6,15.3,29.95,SW,220,6.0,10.0,8,0.00,,,0.00,356,WeatherHawk,2013-04-20 00:28:00,
2013-04-19 17:29:00,82.6,15.3,29.95,SW,235,6.0,9.0,8,0.00,,,0.00,348,WeatherHawk,2013-04-20 00:29:00,
2013-04-19 17:30:00,82.6,15.3,29.94,SW,220,6.0,9.0,8,0.00,,,0.00,344,WeatherHawk,2013-04-20 00:30:00,
2013-04-19 17:33:00,82.6,15.3,29.94,SW,226,7.0,9.0,8,0.00,,,0.00,338,WeatherHawk,2013-04-20 00:33:00,
2013-04-19 17:34:00,82.4,15.2,29.94,SSW,213,5.0,9.0,8,0.00,,,0.00,329,WeatherHawk,2013-04-20 00:34:00,
2013-04-19 17:36:00,82.4,15.2,29.94,SSW,211,6.0,9.0,8,0.00,,,0.00,318,WeatherHawk,2013-04-20 00:36:00,
2013-04-19 17:38:00,82.4,15.2,29.94,SW,214,6.0,9.0,8,0.00,,,0.00,316,WeatherHawk,2013-04-20 00:38:00,
2013-04-19 17:39:00,82.4,15.2,29.94,South,191,5.0,9.0,8,0.00,,,0.00,308,WeatherHawk,2013-04-20 00:39:00,
2013-04-19 17:43:00,82.6,15.3,29.94,SW,222,4.0,9.0,8,0.00,,,0.00,296,WeatherHawk,2013-04-20 00:43:00,
2013-04-19 17:48:00,82.6,18.0,29.94,SSW,210,9.0,-999.0,9,0.00,,,0.00,276,WeatherHawk,2013-04-20 00:48:00,
2013-04-19 17:49:00,82.6,15.3,29.94,SSW,213,8.0,10.0,8,0.00,,,0.00,267,WeatherHawk,2013-04-20 00:49:00,
2013-04-19 17:50:00,82.6,15.3,29.94,SW,221,7.0,10.0,8,0.00,,,0.00,264,WeatherHawk,2013-04-20 00:50:00,
2013-04-19 17:51:00,82.4,15.2,29.94,SSW,213,9.0,10.0,8,0.00,,,0.00,261,WeatherHawk,2013-04-20 00:51:00,
2013-04-19 17:55:00,82.2,15.1,29.94,SW,234,7.0,10.0,8,0.00,,,0.00,244,WeatherHawk,2013-04-20 00:55:00,
2013-04-19 17:57:00,82.2,17.8,29.94,SW,233,7.0,10.0,9,0.00,,,0.00,239,WeatherHawk,2013-04-20 00:57:00,
2013-04-19 17:58:00,82.2,17.8,29.94,SW,228,6.0,-999.0,9,0.00,,,0.00,235,WeatherHawk,2013-04-20 00:58:00,
2013-04-19 18:02:00,82.0,14.9,29.94,SSW,207,8.0,9.0,8,0.00,,,0.00,217,WeatherHawk,2013-04-20 01:02:00,
2013-04-19 18:03:00,82.0,14.9,29.94,SSW,207,8.0,-999.0,8,0.00,,,0.00,217,WeatherHawk,2013-04-20 01:03:00,
2013-04-19 18:04:00,82.0,14.9,29.94,SW,222,9.0,9.0,8,0.00,,,0.00,210,WeatherHawk,2013-04-20 01:04:00,
2013-04-19 18:08:00,82.0,14.9,29.94,SW,226,7.0,-999.0,8,0.00,,,0.00,196,WeatherHawk,2013-04-20 01:08:00,
2013-04-19 18:10:00,82.0,17.6,29.94,SW,220,8.0,9.0,9,0.00,,,0.00,189,WeatherHawk,2013-04-20 01:10:00,
2013-04-19 18:11:00,82.0,17.6,29.93,SW,215,6.0,9.0,9,0.00,,,0.00,184,WeatherHawk,2013-04-20 01:11:00,
2013-04-19 18:13:00,82.0,17.6,29.93,SW,215,7.0,9.0,9,0.00,,,0.00,175,WeatherHawk,2013-04-20 01:13:00,
2013-04-19 18:14:00,82.0,17.6,29.93,SSW,213,7.0,9.0,9,0.00,,,0.00,171,WeatherHawk,2013-04-20 01:14:00,
2013-04-19 18:17:00,81.9,20.0,29.93,SW,222,8.0,9.0,10,0.00,,,0.00,160,WeatherHawk,2013-04-20 01:17:00,
2013-04-19 18:18:00,81.9,20.0,29.93,SW,216,7.0,9.0,10,0.00,,,0.00,154,WeatherHawk,2013-04-20 01:18:00,
2013-04-19 18:19:00,81.7,17.4,29.93,SW,231,6.0,9.0,9,0.00,,,0.00,154,WeatherHawk,2013-04-20 01:19:00,
2013-04-19 18:23:00,81.7,19.8,29.93,SW,220,7.0,9.0,10,0.00,,,0.00,143,WeatherHawk,2013-04-20 01:23:00,
2013-04-19 18:24:00,81.7,19.8,29.93,SW,221,7.0,9.0,10,0.00,,,0.00,134,WeatherHawk,2013-04-20 01:24:00,
2013-04-19 18:26:00,81.7,17.4,29.93,SSW,211,7.0,9.0,9,0.00,,,0.00,128,WeatherHawk,2013-04-20 01:26:00,
2013-04-19 18:27:00,81.7,17.4,29.93,SW,221,7.0,9.0,9,0.00,,,0.00,116,WeatherHawk,2013-04-20 01:27:00,
2013-04-19 18:28:00,81.7,17.4,29.93,SW,221,7.0,9.0,9,0.00,,,0.00,116,WeatherHawk,2013-04-20 01:28:00,
2013-04-19 18:29:00,81.7,17.4,29.93,SW,220,7.0,8.0,9,0.00,,,0.00,117,WeatherHawk,2013-04-20 01:29:00,
2013-04-19 18:32:00,81.5,19.7,29.93,SW,222,7.0,8.0,10,0.00,,,0.00,108,WeatherHawk,2013-04-20 01:32:00,
2013-04-19 18:33:00,81.5,19.7,29.93,SW,222,7.0,8.0,10,0.00,,,0.00,108,WeatherHawk,2013-04-20 01:33:00,
2013-04-19 18:38:00,81.3,19.5,29.93,SW,220,7.0,-999.0,10,0.00,,,0.00,94,WeatherHawk,2013-04-20 01:38:00,
2013-04-19 18:40:00,81.1,19.4,29.93,SW,232,6.0,8.0,10,0.00,,,0.00,84,WeatherHawk,2013-04-20 01:40:00,
2013-04-19 18:41:00,81.1,19.4,29.93,SW,225,6.0,8.0,10,0.00,,,0.00,81,WeatherHawk,2013-04-20 01:41:00,
2013-04-19 18:43:00,81.0,19.3,29.93,SW,228,5.0,8.0,10,0.00,,,0.00,71,WeatherHawk,2013-04-20 01:43:00,
2013-04-19 18:44:00,81.0,19.3,29.93,SW,224,6.0,8.0,10,0.00,,,0.00,72,WeatherHawk,2013-04-20 01:44:00,
2013-04-19 18:46:00,81.0,19.3,29.93,SW,234,5.0,8.0,10,0.00,,,0.00,66,WeatherHawk,2013-04-20 01:46:00,
2013-04-19 18:47:00,81.0,21.5,29.93,SW,236,5.0,8.0,11,0.00,,,0.00,64,WeatherHawk,2013-04-20 01:47:00,
2013-04-19 18:48:00,80.8,21.4,29.93,SW,233,6.0,7.0,11,0.00,,,0.00,60,WeatherHawk,2013-04-20 01:48:00,
2013-04-19 18:52:00,80.4,25.1,29.93,SW,235,6.0,7.0,13,0.00,,,0.00,41,WeatherHawk,2013-04-20 01:52:00,
2013-04-19 18:53:00,80.4,25.1,29.93,SW,235,6.0,7.0,13,0.00,,,0.00,41,WeatherHawk,2013-04-20 01:53:00,
2013-04-19 18:57:00,79.7,24.5,29.93,WSW,241,6.0,7.0,13,0.00,,,0.00,36,WeatherHawk,2013-04-20 01:57:00,
2013-04-19 18:58:00,79.7,24.5,29.93,WSW,241,6.0,7.0,13,0.00,,,0.00,36,WeatherHawk,2013-04-20 01:58:00,
2013-04-19 19:00:00,79.5,26.1,29.93,SW,232,6.0,7.0,14,0.00,,,0.00,29,WeatherHawk,2013-04-20 02:00:00,
2013-04-19 19:03:00,79.3,26.0,29.93,SW,232,5.0,-999.0,14,0.00,,,0.00,22,WeatherHawk,2013-04-20 02:03:00,
2013-04-19 19:04:00,79.2,24.1,29.93,SW,230,6.0,7.0,13,0.00,,,0.00,17,WeatherHawk,2013-04-20 02:04:00,
2013-04-19 19:08:00,79.0,25.7,29.93,WSW,246,5.0,7.0,14,0.00,,,0.00,12,WeatherHawk,2013-04-20 02:08:00,
2013-04-19 19:10:00,78.6,25.4,29.93,SW,227,5.0,7.0,14,0.00,,,0.00,6,WeatherHawk,2013-04-20 02:10:00,
2013-04-19 19:13:00,78.4,27.0,29.93,WSW,239,6.0,7.0,15,0.00,,,0.00,0,WeatherHawk,2013-04-20 02:13:00,
2013-04-19 19:17:00,77.9,28.1,29.93,WSW,244,7.0,7.0,16,0.00,,,0.00,3,WeatherHawk,2013-04-20 02:17:00,
2013-04-19 19:18:00,77.9,28.1,29.93,WSW,244,7.0,7.0,16,0.00,,,0.00,3,WeatherHawk,2013-04-20 02:18:00,
2013-04-19 19:20:00,77.4,29.1,29.93,WSW,247,7.0,8.0,17,0.00,,,0.00,1,WeatherHawk,2013-04-20 02:20:00,
2013-04-19 19:22:00,77.0,30.2,29.93,WSW,246,7.0,8.0,18,0.00,,,0.00,2,WeatherHawk,2013-04-20 02:22:00,
2013-04-19 19:23:00,77.0,30.2,29.93,WSW,246,7.0,8.0,18,0.00,,,0.00,2,WeatherHawk,2013-04-20 02:23:00,
2013-04-19 19:26:00,76.1,32.1,29.93,WSW,253,6.0,8.0,20,0.00,,,0.00,0,WeatherHawk,2013-04-20 02:26:00,
2013-04-19 19:27:00,75.9,32.0,29.93,WSW,245,6.0,8.0,20,0.00,,,0.00,0,WeatherHawk,2013-04-20 02:27:00,
2013-04-19 19:28:00,75.7,31.8,29.93,WSW,248,5.0,8.0,20,0.00,,,0.00,0,WeatherHawk,2013-04-20 02:28:00,
2013-04-19 19:29:00,75.6,31.7,29.93,WSW,249,5.0,8.0,20,0.00,,,0.00,0,WeatherHawk,2013-04-20 02:29:00,
2013-04-19 19:32:00,75.0,32.4,29.93,WSW,243,5.0,8.0,21,0.00,,,0.00,0,WeatherHawk,2013-04-20 02:32:00,
2013-04-19 19:33:00,75.0,32.4,29.93,WSW,243,5.0,8.0,21,0.00,,,0.00,0,WeatherHawk,2013-04-20 02:33:00,
2013-04-19 19:36:00,74.3,31.8,29.93,WSW,246,4.0,8.0,21,0.00,,,0.00,0,WeatherHawk,2013-04-20 02:36:00,
2013-04-19 19:38:00,74.3,31.8,29.93,WSW,244,5.0,8.0,21,0.00,,,0.00,0,WeatherHawk,2013-04-20 02:38:00,
2013-04-19 19:42:00,73.9,31.5,29.93,WSW,255,5.0,6.0,21,0.00,,,0.00,0,WeatherHawk,2013-04-20 02:42:00,
2013-04-19 19:43:00,73.8,32.5,29.93,WSW,250,4.0,6.0,22,0.00,,,0.00,0,WeatherHawk,2013-04-20 02:43:00,
2013-04-19 19:44:00,73.8,32.5,29.93,WSW,255,5.0,6.0,22,0.00,,,0.00,0,WeatherHawk,2013-04-20 02:44:00,
2013-04-19 19:45:00,73.6,32.4,29.93,WSW,241,4.0,6.0,22,0.00,,,0.00,0,WeatherHawk,2013-04-20 02:45:00,
2013-04-19 19:47:00,73.6,32.4,29.93,WSW,249,4.0,6.0,22,0.00,,,0.00,0,WeatherHawk,2013-04-20 02:47:00,
2013-04-19 19:51:00,73.6,30.0,29.93,WSW,237,6.0,7.0,20,0.00,,,0.00,0,WeatherHawk,2013-04-20 02:51:00,
2013-04-19 19:53:00,73.8,30.2,29.93,WSW,240,7.0,7.0,20,0.00,,,0.00,0,WeatherHawk,2013-04-20 02:53:00,
2013-04-19 19:55:00,73.9,29.1,29.93,WSW,238,8.0,8.0,19,0.00,,,0.00,1,WeatherHawk,2013-04-20 02:55:00,
2013-04-19 19:56:00,74.1,27.9,29.93,SW,236,6.0,7.0,18,0.00,,,0.00,0,WeatherHawk,2013-04-20 02:56:00,
2013-04-19 19:58:00,74.3,28.0,29.93,SW,236,6.0,-999.0,18,0.00,,,0.00,0,WeatherHawk,2013-04-20 02:58:00,
2013-04-19 20:00:00,74.3,29.4,29.93,WSW,237,6.0,8.0,19,0.00,,,0.00,0,WeatherHawk,2013-04-20 03:00:00,
2013-04-19 20:01:00,74.3,29.4,29.93,SW,234,6.0,8.0,19,0.00,,,0.00,0,WeatherHawk,2013-04-20 03:01:00,
2013-04-19 20:04:00,73.9,30.3,29.93,WSW,241,5.0,8.0,20,0.00,,,0.00,0,WeatherHawk,2013-04-20 03:04:00,
2013-04-19 20:05:00,73.9,30.3,29.93,WSW,240,5.0,8.0,20,0.00,,,0.00,0,WeatherHawk,2013-04-20 03:05:00,
2013-04-19 20:08:00,73.4,29.9,29.93,WSW,244,4.0,8.0,20,0.00,,,0.00,0,WeatherHawk,2013-04-20 03:08:00,
2013-04-19 20:11:00,73.2,29.7,29.93,WSW,247,4.0,7.0,20,0.00,,,0.00,0,WeatherHawk,2013-04-20 03:11:00,
2013-04-19 20:13:00,73.0,29.6,29.93,SW,235,4.0,7.0,20,0.00,,,0.00,0,WeatherHawk,2013-04-20 03:13:00,
2013-04-19 20:14:00,73.0,30.8,29.93,SW,236,4.0,7.0,21,0.00,,,0.00,0,WeatherHawk,2013-04-20 03:14:00,
2013-04-19 20:16:00,72.9,30.6,29.94,WSW,240,5.0,7.0,21,0.00,,,0.00,0,WeatherHawk,2013-04-20 03:16:00,
2013-04-19 20:17:00,72.9,29.4,29.94,WSW,242,5.0,7.0,20,0.00,,,0.00,0,WeatherHawk,2013-04-20 03:17:00,
2013-04-19 20:18:00,72.9,29.4,29.94,WSW,242,5.0,-999.0,20,0.00,,,0.00,0,WeatherHawk,2013-04-20 03:18:00,
2013-04-19 20:22:00,72.9,30.6,29.93,WSW,242,4.0,6.0,21,0.00,,,0.00,0,WeatherHawk,2013-04-20 03:22:00,
2013-04-19 20:24:00,72.7,30.5,29.93,WSW,241,4.0,6.0,21,0.00,,,0.00,0,WeatherHawk,2013-04-20 03:24:00,
2013-04-19 20:25:00,72.7,30.5,29.94,WSW,245,4.0,6.0,21,0.00,,,0.00,0,WeatherHawk,2013-04-20 03:25:00,
2013-04-19 20:26:00,72.7,30.5,29.94,WSW,248,4.0,6.0,21,0.00,,,0.00,0,WeatherHawk,2013-04-20 03:26:00,
2013-04-19 20:27:00,72.5,30.3,29.94,WSW,243,4.0,6.0,21,0.00,,,0.00,0,WeatherHawk,2013-04-20 03:27:00,
2013-04-19 20:28:00,72.5,30.3,29.94,WSW,249,3.0,5.0,21,0.00,,,0.00,0,WeatherHawk,2013-04-20 03:28:00,
2013-04-19 20:29:00,72.5,30.3,29.94,WSW,248,3.0,5.0,21,0.00,,,0.00,0,WeatherHawk,2013-04-20 03:29:00,
2013-04-19 20:31:00,72.5,30.3,29.94,WSW,244,4.0,5.0,21,0.00,,,0.00,0,WeatherHawk,2013-04-20 03:31:00,
2013-04-19 20:33:00,72.3,30.2,29.94,WSW,246,3.0,-999.0,21,0.00,,,0.00,0,WeatherHawk,2013-04-20 03:33:00,
2013-04-19 20:34:00,72.3,30.2,29.94,WSW,245,3.0,5.0,21,0.00,,,0.00,0,WeatherHawk,2013-04-20 03:34:00,
2013-04-19 20:35:00,72.1,31.2,29.94,WSW,246,3.0,5.0,22,0.00,,,0.00,0,WeatherHawk,2013-04-20 03:35:00,
2013-04-19 20:38:00,72.1,31.2,29.94,WSW,250,3.0,-999.0,22,0.00,,,0.00,0,WeatherHawk,2013-04-20 03:38:00,
2013-04-19 20:39:00,72.0,31.0,29.94,WSW,246,3.0,4.0,22,0.00,,,0.00,0,WeatherHawk,2013-04-20 03:39:00,
2013-04-19 20:40:00,72.0,31.0,29.94,WSW,247,4.0,4.0,22,0.00,,,0.00,1,WeatherHawk,2013-04-20 03:40:00,
2013-04-19 20:41:00,72.0,31.0,29.94,WSW,250,3.0,4.0,22,0.00,,,0.00,0,WeatherHawk,2013-04-20 03:41:00,
2013-04-19 20:43:00,72.0,31.0,29.94,WSW,245,4.0,-999.0,22,0.00,,,0.00,0,WeatherHawk,2013-04-20 03:43:00,
2013-04-19 20:48:00,71.8,30.9,29.94,WSW,237,4.0,4.0,22,0.00,,,0.00,0,WeatherHawk,2013-04-20 03:48:00,
2013-04-19 20:50:00,71.8,30.9,29.94,SW,227,4.0,4.0,22,0.00,,,0.00,0,WeatherHawk,2013-04-20 03:50:00,
2013-04-19 20:53:00,71.6,30.7,29.94,SW,227,4.0,-999.0,22,0.00,,,0.00,0,WeatherHawk,2013-04-20 03:53:00,
2013-04-19 20:54:00,71.6,30.7,29.94,SW,234,4.0,4.0,22,0.00,,,0.00,0,WeatherHawk,2013-04-20 03:54:00,
2013-04-19 20:55:00,71.6,30.7,29.94,SW,234,3.0,4.0,22,0.00,,,0.00,0,WeatherHawk,2013-04-20 03:55:00,
2013-04-19 20:56:00,71.6,30.7,29.94,SW,236,3.0,4.0,22,0.00,,,0.00,0,WeatherHawk,2013-04-20 03:56:00,
2013-04-19 20:58:00,71.6,30.7,29.94,SW,235,3.0,5.0,22,0.00,,,0.00,0,WeatherHawk,2013-04-20 03:58:00,
2013-04-19 21:01:00,71.6,30.7,29.94,SW,236,4.0,5.0,22,0.00,,,0.00,0,WeatherHawk,2013-04-20 04:01:00,
2013-04-19 21:02:00,71.8,29.7,29.94,WSW,237,3.0,5.0,21,0.00,,,0.00,0,WeatherHawk,2013-04-20 04:02:00,
2013-04-19 21:03:00,71.8,29.7,29.94,WSW,237,3.0,5.0,21,0.00,,,0.00,0,WeatherHawk,2013-04-20 04:03:00,
2013-04-19 21:04:00,71.8,29.7,29.94,WSW,242,3.0,5.0,21,0.00,,,0.00,0,WeatherHawk,2013-04-20 04:04:00,
2013-04-19 21:06:00,71.8,29.7,29.94,WSW,246,3.0,5.0,21,0.00,,,0.00,0,WeatherHawk,2013-04-20 04:06:00,
2013-04-19 21:07:00,72.0,29.9,29.94,WSW,250,4.0,5.0,21,0.00,,,0.00,0,WeatherHawk,2013-04-20 04:07:00,
2013-04-19 21:10:00,72.0,29.9,29.94,WSW,257,3.0,4.0,21,0.00,,,0.00,0,WeatherHawk,2013-04-20 04:10:00,
2013-04-19 21:11:00,72.0,29.9,29.94,West,260,3.0,4.0,21,0.00,,,0.00,0,WeatherHawk,2013-04-20 04:11:00,
2013-04-19 21:12:00,72.0,31.0,29.94,WSW,250,3.0,4.0,22,0.00,,,0.00,0,WeatherHawk,2013-04-20 04:12:00,
2013-04-19 21:13:00,72.0,31.0,29.94,WSW,250,3.0,4.0,22,0.00,,,0.00,0,WeatherHawk,2013-04-20 04:13:00,
2013-04-19 21:14:00,71.8,30.9,29.94,WSW,245,3.0,4.0,22,0.00,,,0.00,0,WeatherHawk,2013-04-20 04:14:00,
2013-04-19 21:17:00,71.8,30.9,29.94,WSW,242,3.0,4.0,22,0.00,,,0.00,0,WeatherHawk,2013-04-20 04:17:00,
2013-04-19 21:18:00,71.6,30.7,29.94,WSW,244,3.0,0.0,22,0.00,,,0.00,0,WeatherHawk,2013-04-20 04:18:00,
2013-04-19 21:19:00,71.6,30.7,29.94,WSW,249,3.0,4.0,22,0.00,,,0.00,0,WeatherHawk,2013-04-20 04:19:00,
2013-04-19 21:21:00,71.6,31.8,29.94,WSW,250,2.0,4.0,23,0.00,,,0.00,0,WeatherHawk,2013-04-20 04:21:00,
2013-04-19 21:23:00,71.4,31.7,29.94,WSW,249,3.0,4.0,23,0.00,,,0.00,0,WeatherHawk,2013-04-20 04:23:00,
2013-04-19 21:26:00,71.2,31.5,29.94,WSW,246,3.0,4.0,23,0.00,,,0.00,0,WeatherHawk,2013-04-20 04:26:00,
2013-04-19 21:27:00,71.2,31.5,29.94,WSW,245,3.0,4.0,23,0.00,,,0.00,0,WeatherHawk,2013-04-20 04:27:00,
2013-04-19 21:28:00,71.2,31.5,29.94,WSW,245,3.0,-999.0,23,0.00,,,0.00,0,WeatherHawk,2013-04-20 04:28:00,
2013-04-19 21:30:00,71.1,31.4,29.94,SW,233,3.0,0.0,23,0.00,,,0.00,0,WeatherHawk,2013-04-20 04:30:00,
2013-04-19 21:32:00,70.9,31.2,29.94,SW,223,3.0,0.0,23,0.00,,,0.00,0,WeatherHawk,2013-04-20 04:32:00,
2013-04-19 21:33:00,70.9,31.2,29.94,SW,223,3.0,0.0,23,0.00,,,0.00,0,WeatherHawk,2013-04-20 04:33:00,
2013-04-19 21:37:00,70.2,31.7,29.94,SW,227,4.0,0.0,24,0.00,,,0.00,0,WeatherHawk,2013-04-20 04:37:00,
2013-04-19 21:38:00,70.2,31.7,29.94,SW,227,4.0,0.0,24,0.00,,,0.00,0,WeatherHawk,2013-04-20 04:38:00,
2013-04-19 21:41:00,70.0,31.5,29.94,SW,228,3.0,4.0,24,0.00,,,0.00,0,WeatherHawk,2013-04-20 04:41:00,
2013-04-19 21:42:00,69.8,31.4,29.94,SW,228,3.0,4.0,24,0.00,,,0.00,0,WeatherHawk,2013-04-20 04:42:00,
2013-04-19 21:44:00,69.8,31.4,29.94,SW,224,3.0,4.0,24,0.00,,,0.00,0,WeatherHawk,2013-04-20 04:44:00,
2013-04-19 21:46:00,69.4,32.1,29.94,SW,225,3.0,4.0,25,0.00,,,0.00,0,WeatherHawk,2013-04-20 04:46:00,
2013-04-19 21:48:00,69.4,32.1,29.94,SW,226,3.0,4.0,25,0.00,,,0.00,0,WeatherHawk,2013-04-20 04:48:00,
2013-04-19 21:49:00,69.4,32.1,29.94,SW,226,3.0,4.0,25,0.00,,,0.00,0,WeatherHawk,2013-04-20 04:49:00,
2013-04-19 21:50:00,69.4,32.1,29.94,SW,222,3.0,4.0,25,0.00,,,0.00,0,WeatherHawk,2013-04-20 04:50:00,
2013-04-19 21:54:00,69.4,32.1,29.94,SSW,213,4.0,-999.0,25,0.00,,,0.00,0,WeatherHawk,2013-04-20 04:54:00,
2013-04-19 21:55:00,69.3,31.9,29.94,SSW,208,5.0,5.0,25,0.00,,,0.00,0,WeatherHawk,2013-04-20 04:55:00,
2013-04-19 21:57:00,68.9,32.6,29.94,SW,217,4.0,4.0,26,0.00,,,0.00,0,WeatherHawk,2013-04-20 04:57:00,
2013-04-19 21:58:00,68.7,32.4,29.94,SSW,212,4.0,4.0,26,0.00,,,0.00,0,WeatherHawk,2013-04-20 04:58:00,
2013-04-19 21:59:00,68.7,32.4,29.94,SSW,212,4.0,4.0,26,0.00,,,0.00,0,WeatherHawk,2013-04-20 04:59:00,
2013-04-19 22:02:00,68.5,32.3,29.94,SW,222,4.0,6.0,26,0.00,,,0.00,0,WeatherHawk,2013-04-20 05:02:00,
2013-04-19 22:03:00,68.5,32.3,29.94,SSW,212,5.0,6.0,26,0.00,,,0.00,0,WeatherHawk,2013-04-20 05:03:00,
2013-04-19 22:04:00,68.5,32.3,29.94,SSW,212,5.0,6.0,26,0.00,,,0.00,0,WeatherHawk,2013-04-20 05:04:00,
2013-04-19 22:08:00,68.4,31.2,29.94,SW,220,4.0,6.0,25,0.00,,,0.00,0,WeatherHawk,2013-04-20 05:08:00,
2013-04-19 22:10:00,68.4,31.2,29.94,SW,219,3.0,6.0,25,0.00,,,0.00,0,WeatherHawk,2013-04-20 05:10:00,
2013-04-19 22:12:00,68.2,31.0,29.94,SW,225,4.0,6.0,25,0.00,,,0.00,0,WeatherHawk,2013-04-20 05:12:00,
2013-04-19 22:13:00,68.2,31.0,29.94,SW,226,4.0,6.0,25,0.00,,,0.00,0,WeatherHawk,2013-04-20 05:13:00,
2013-04-19 22:18:00,68.0,30.9,29.94,SW,224,3.0,-999.0,25,0.00,,,0.00,0,WeatherHawk,2013-04-20 05:18:00,
2013-04-19 22:19:00,68.0,29.9,29.94,SW,223,3.0,0.0,24,0.00,,,0.00,0,WeatherHawk,2013-04-20 05:19:00,
2013-04-19 22:23:00,68.2,30.0,29.94,SSW,212,3.0,4.0,24,0.00,,,0.00,0,WeatherHawk,2013-04-20 05:23:00,
2013-04-19 22:24:00,68.2,30.0,29.94,SSW,210,4.0,4.0,24,0.00,,,0.00,0,WeatherHawk,2013-04-20 05:24:00,
2013-04-19 22:28:00,68.2,30.0,29.94,SSW,202,4.0,4.0,24,0.00,,,0.00,1,WeatherHawk,2013-04-20 05:28:00,
2013-04-19 22:29:00,68.2,31.0,29.94,SSW,209,4.0,4.0,25,0.00,,,0.00,1,WeatherHawk,2013-04-20 05:29:00,
2013-04-19 22:31:00,68.2,30.0,29.94,SSW,209,3.0,4.0,24,0.00,,,0.00,0,WeatherHawk,2013-04-20 05:31:00,
2013-04-19 22:32:00,68.2,30.0,29.94,SW,217,3.0,4.0,24,0.00,,,0.00,0,WeatherHawk,2013-04-20 05:32:00,
2013-04-19 22:34:00,68.2,30.0,29.94,SW,220,3.0,4.0,24,0.00,,,0.00,0,WeatherHawk,2013-04-20 05:34:00,
2013-04-19 22:36:00,68.4,30.2,29.94,SW,215,3.0,4.0,24,0.00,,,0.00,0,WeatherHawk,2013-04-20 05:36:00,
2013-04-19 22:38:00,68.5,29.3,29.93,SW,221,4.0,4.0,23,0.00,,,0.00,0,WeatherHawk,2013-04-20 05:38:00,
2013-04-19 22:40:00,68.5,29.3,29.93,SW,223,4.0,4.0,23,0.00,,,0.00,0,WeatherHawk,2013-04-20 05:40:00,
2013-04-19 22:41:00,68.7,29.4,29.93,SW,234,4.0,4.0,23,0.00,,,0.00,0,WeatherHawk,2013-04-20 05:41:00,
2013-04-19 22:43:00,68.7,28.3,29.93,SW,224,3.0,4.0,22,0.00,,,0.00,0,WeatherHawk,2013-04-20 05:43:00,
2013-04-19 22:45:00,68.9,28.5,29.93,SW,225,3.0,4.0,22,0.00,,,0.00,0,WeatherHawk,2013-04-20 05:45:00,
2013-04-19 22:47:00,68.7,28.3,29.93,SW,226,3.0,4.0,22,0.00,,,0.00,0,WeatherHawk,2013-04-20 05:47:00,
2013-04-19 22:48:00,68.7,29.4,29.93,SW,218,3.0,4.0,23,0.00,,,0.00,0,WeatherHawk,2013-04-20 05:48:00,
2013-04-19 22:52:00,68.5,29.3,29.93,SSW,208,4.0,4.0,23,0.00,,,0.00,0,WeatherHawk,2013-04-20 05:52:00,
2013-04-19 22:53:00,68.5,30.3,29.93,SW,216,4.0,4.0,24,0.00,,,0.00,0,WeatherHawk,2013-04-20 05:53:00,
2013-04-19 22:54:00,68.4,30.2,29.93,SW,218,4.0,4.0,24,0.00,,,0.00,0,WeatherHawk,2013-04-20 05:54:00,
2013-04-19 22:57:00,67.8,29.7,29.93,SSW,209,5.0,5.0,24,0.00,,,0.00,0,WeatherHawk,2013-04-20 05:57:00,
2013-04-19 22:58:00,67.6,30.6,29.93,SSW,192,4.0,-999.0,25,0.00,,,0.00,0,WeatherHawk,2013-04-20 05:58:00,
2013-04-19 23:03:00,66.9,30.9,29.93,SSW,198,3.0,5.0,26,0.00,,,0.00,0,WeatherHawk,2013-04-20 06:03:00,
2013-04-19 23:04:00,66.9,30.9,29.93,SSW,193,4.0,5.0,26,0.00,,,0.00,0,WeatherHawk,2013-04-20 06:04:00,
2013-04-19 23:06:00,66.7,31.7,29.93,SSW,197,3.0,5.0,27,0.00,,,0.00,0,WeatherHawk,2013-04-20 06:06:00,
2013-04-19 23:08:00,66.6,31.5,29.93,SSW,194,3.0,5.0,27,0.00,,,0.00,0,WeatherHawk,2013-04-20 06:08:00,
2013-04-19 23:10:00,66.4,31.4,29.93,SSW,193,3.0,4.0,27,0.00,,,0.00,0,WeatherHawk,2013-04-20 06:10:00,
2013-04-19 23:12:00,66.4,31.4,29.93,SSW,198,4.0,4.0,27,0.00,,,0.00,0,WeatherHawk,2013-04-20 06:12:00,
2013-04-19 23:13:00,66.4,31.4,29.93,SSW,197,4.0,4.0,27,0.00,,,0.00,0,WeatherHawk,2013-04-20 06:13:00,
2013-04-19 23:14:00,66.4,30.5,29.93,SSW,198,4.0,4.0,26,0.00,,,0.00,0,WeatherHawk,2013-04-20 06:14:00,
2013-04-19 23:18:00,66.2,30.3,29.93,SSW,211,4.0,4.0,26,0.00,,,0.00,0,WeatherHawk,2013-04-20 06:18:00,
2013-04-19 23:21:00,66.0,30.1,29.93,SW,215,3.0,4.0,26,0.00,,,0.00,0,WeatherHawk,2013-04-20 06:21:00,
2013-04-19 23:23:00,66.0,30.1,29.93,SW,217,3.0,4.0,26,0.00,,,0.00,0,WeatherHawk,2013-04-20 06:23:00,
2013-04-19 23:28:00,66.0,29.2,29.93,SW,228,3.0,4.0,25,0.00,,,0.00,0,WeatherHawk,2013-04-20 06:28:00,
2013-04-19 23:29:00,66.0,29.2,29.93,SW,230,3.0,4.0,25,0.00,,,0.00,0,WeatherHawk,2013-04-20 06:29:00,
2013-04-19 23:30:00,66.0,29.2,29.93,SW,232,3.0,4.0,25,0.00,,,0.00,0,WeatherHawk,2013-04-20 06:30:00,
2013-04-19 23:31:00,66.2,29.3,29.93,SW,231,4.0,4.0,25,0.00,,,0.00,0,WeatherHawk,2013-04-20 06:31:00,
2013-04-19 23:34:00,66.6,28.6,29.93,WSW,238,4.0,4.0,24,0.00,,,0.00,0,WeatherHawk,2013-04-20 06:34:00,
2013-04-19 23:36:00,66.7,28.8,29.93,WSW,244,4.0,4.0,24,0.00,,,0.00,0,WeatherHawk,2013-04-20 06:36:00,
2013-04-19 23:37:00,66.7,28.8,29.93,WSW,249,4.0,4.0,24,0.00,,,0.00,0,WeatherHawk,2013-04-20 06:37:00,
2013-04-19 23:39:00,66.7,28.8,29.93,WSW,255,3.0,4.0,24,0.00,,,0.00,0,WeatherHawk,2013-04-20 06:39:00,
2013-04-19 23:40:00,66.9,28.9,29.93,WSW,258,3.0,4.0,24,0.00,,,0.00,0,WeatherHawk,2013-04-20 06:40:00,
2013-04-19 23:41:00,66.9,28.9,29.93,WSW,255,4.0,4.0,24,0.00,,,0.00,0,WeatherHawk,2013-04-20 06:41:00,
2013-04-19 23:42:00,66.9,28.9,29.93,WSW,258,4.0,4.0,24,0.00,,,0.00,0,WeatherHawk,2013-04-20 06:42:00,
2013-04-19 23:44:00,66.9,28.9,29.93,WSW,258,4.0,4.0,24,0.00,,,0.00,0,WeatherHawk,2013-04-20 06:44:00,
2013-04-19 23:46:00,66.9,29.9,29.93,West,265,4.0,4.0,25,0.00,,,0.00,0,WeatherHawk,2013-04-20 06:46:00,
2013-04-19 23:48:00,66.7,29.8,29.93,WSW,257,3.0,4.0,25,0.00,,,0.00,0,WeatherHawk,2013-04-20 06:48:00,
2013-04-19 23:49:00,66.7,29.8,29.93,West,262,4.0,4.0,25,0.00,,,0.00,0,WeatherHawk,2013-04-20 06:49:00,
2013-04-19 23:53:00,66.4,30.5,29.93,West,270,3.0,4.0,26,0.00,,,0.00,0,WeatherHawk,2013-04-20 06:53:00,
2013-04-19 23:55:00,66.4,30.5,29.93,West,273,3.0,4.0,26,0.00,,,0.00,0,WeatherHawk,2013-04-20 06:55:00,
2013-04-19 23:58:00,66.4,30.5,29.92,West,267,4.0,4.0,26,0.00,,,0.00,0,WeatherHawk,2013-04-20 06:58:00,
2013-04-19 23:59:00,66.4,30.5,29.92,West,270,4.0,4.0,26,0.00,,,0.00,0,WeatherHawk,2013-04-20 06:59:00,